Rang BattleTag® Niveau Temps Terminé
1. Zelda 45 3min 43.049s. 6 août 2019 17:17:56
Estampero 45 3min 43.049s. 6 août 2019 17:17:56
Numetals 45 3min 43.049s. 6 août 2019 17:17:56
CVTitan 45 3min 43.049s. 6 août 2019 17:17:56
5. fellax0r 45 3min 46.133s. 6 août 2019 00:21:56
Echo 45 3min 46.133s. 6 août 2019 00:21:56
namKD 45 3min 46.133s. 6 août 2019 00:21:56
Biggle 45 3min 46.133s. 6 août 2019 00:21:56
9. DemonHunter 45 3min 46.766s. 6 août 2019 17:27:14
Flash 45 3min 46.766s. 6 août 2019 17:27:14
Drakenblack 45 3min 46.766s. 6 août 2019 17:27:14
Gabriele68 45 3min 46.766s. 6 août 2019 17:27:14
13. angelia 45 3min 46.816s. 7 août 2019 23:14:59
Mayrhon 45 3min 46.816s. 7 août 2019 23:14:59
Draëcklas 45 3min 46.816s. 7 août 2019 23:14:59
Jiloper 45 3min 46.816s. 7 août 2019 23:14:59
17. steckei 45 3min 49.983s. 6 août 2019 15:32:59
WalterWh1te 45 3min 49.983s. 6 août 2019 15:32:59
MadWilliam 45 3min 49.983s. 6 août 2019 15:32:59
Louffy 45 3min 49.983s. 6 août 2019 15:32:59
21. Gado 45 3min 50.733s. 6 août 2019 11:07:45
tomason 45 3min 50.733s. 6 août 2019 11:07:45
Kassit 45 3min 50.733s. 6 août 2019 11:07:45
Kiddi 45 3min 50.733s. 6 août 2019 11:07:45
25. Killer 45 3min 53.916s. 6 août 2019 13:29:52
Ben 45 3min 53.916s. 6 août 2019 13:29:52
Aela 45 3min 53.916s. 6 août 2019 13:29:52
Klohtun 45 3min 53.916s. 6 août 2019 13:29:52
29. DeathStalker 45 3min 54.450s. 11 août 2019 14:31:52
HeideWitzka 45 3min 54.450s. 11 août 2019 14:31:52
SkyLine 45 3min 54.450s. 11 août 2019 14:31:52
DaYwalkeR2 45 3min 54.450s. 11 août 2019 14:31:52
33. FalamyBrenk 45 3min 54.816s. 5 août 2019 23:54:23
dvdz 45 3min 54.816s. 5 août 2019 23:54:23
Gabri1248 45 3min 54.816s. 5 août 2019 23:54:23
azZANNAtore 45 3min 54.816s. 5 août 2019 23:54:23
37. MrEvil 45 3min 55.783s. 5 août 2019 22:46:59
Sheppard 45 3min 55.783s. 5 août 2019 22:46:59
Anubis 45 3min 55.783s. 5 août 2019 22:46:59
Küken 45 3min 55.783s. 5 août 2019 22:46:59
41. КАТЮША 45 3min 57.566s. 6 août 2019 19:51:35
Galaxia 45 3min 57.566s. 6 août 2019 19:51:35
PepperX 45 3min 57.566s. 6 août 2019 19:51:35
Morry 45 3min 57.566s. 6 août 2019 19:51:35
45. Quatremain 45 3min 59.266s. 7 août 2019 10:34:10
Festus 45 3min 59.266s. 7 août 2019 10:34:10
Nagibator 45 3min 59.266s. 7 août 2019 10:34:10
Alvar 45 3min 59.266s. 7 août 2019 10:34:10
49. Dolmagor 45 4min 2.683s. 8 août 2019 17:58:25
Infektion 45 4min 2.683s. 8 août 2019 17:58:25
Artem 45 4min 2.683s. 8 août 2019 17:58:25
Seth 45 4min 2.683s. 8 août 2019 17:58:25
53. Фарго 45 4min 3.100s. 8 août 2019 20:57:29
Veritas 45 4min 3.100s. 8 août 2019 20:57:29
DarthDredd 45 4min 3.100s. 8 août 2019 20:57:29
HärDom 45 4min 3.100s. 8 août 2019 20:57:29
57. Malebolgia 45 4min 3.249s. 6 août 2019 07:50:50
EcOlife 45 4min 3.249s. 6 août 2019 07:50:50
UtherLightbr 45 4min 3.249s. 6 août 2019 07:50:50
jhfpetardo 45 4min 3.249s. 6 août 2019 07:50:50
61. uRb 45 4min 4.000s. 6 août 2019 14:32:14
Cleopatra 45 4min 4.000s. 6 août 2019 14:32:14
Mateusz 45 4min 4.000s. 6 août 2019 14:32:14
PEYODART 45 4min 4.000s. 6 août 2019 14:32:14
65. Donner 45 4min 4.866s. 7 août 2019 13:34:03
Hona 45 4min 4.866s. 7 août 2019 13:34:03
beholder 45 4min 4.866s. 7 août 2019 13:34:03
AngelWing 45 4min 4.866s. 7 août 2019 13:34:03
69. Sevastian 45 4min 4.983s. 7 août 2019 20:16:35
charabia 45 4min 4.983s. 7 août 2019 20:16:35
PISK26 45 4min 4.983s. 7 août 2019 20:16:35
Quake 45 4min 4.983s. 7 août 2019 20:16:35
73. Sandertp 45 4min 6.016s. 6 août 2019 10:23:50
MrMartinos 45 4min 6.016s. 6 août 2019 10:23:50
arza 45 4min 6.016s. 6 août 2019 10:23:50
waeb89 45 4min 6.016s. 6 août 2019 10:23:50
77. ShiKume 45 4min 6.033s. 7 août 2019 17:51:52
joerg963 45 4min 6.033s. 7 août 2019 17:51:52
Sphinks 45 4min 6.033s. 7 août 2019 17:51:52
Timer 45 4min 6.033s. 7 août 2019 17:51:52
81. KroczacyNoca 45 4min 6.050s. 11 août 2019 12:17:47
siwyroman 45 4min 6.050s. 11 août 2019 12:17:47
Atiel 45 4min 6.050s. 11 août 2019 12:17:47
AnnaM 45 4min 6.050s. 11 août 2019 12:17:47
85. GobliN 45 4min 6.383s. 12 août 2019 16:24:38
ТигрФортуны 45 4min 6.383s. 12 août 2019 16:24:38
XxItachixX 45 4min 6.383s. 12 août 2019 16:24:38
Jons 45 4min 6.383s. 12 août 2019 16:24:38
89. Boomboom 45 4min 7.983s. 6 août 2019 11:15:16
Luzie 45 4min 7.983s. 6 août 2019 11:15:16
Ron 45 4min 7.983s. 6 août 2019 11:15:16
MrStringer 45 4min 7.983s. 6 août 2019 11:15:16
93. Tahazaar 45 4min 8.266s. 11 août 2019 18:53:02
BloodStone 45 4min 8.266s. 11 août 2019 18:53:02
Elysean 45 4min 8.266s. 11 août 2019 18:53:02
AaleksMesc 45 4min 8.266s. 11 août 2019 18:53:02
97. Dragunar 45 4min 8.750s. 6 août 2019 16:26:16
Jasek11 45 4min 8.750s. 6 août 2019 16:26:16
StrongLegacy 45 4min 8.750s. 6 août 2019 16:26:16
Flaschka 45 4min 8.750s. 6 août 2019 16:26:16
101. Diablofreak 45 4min 8.900s. 6 août 2019 17:30:11
ThomasIceman 45 4min 8.900s. 6 août 2019 17:30:11
MICMO 45 4min 8.900s. 6 août 2019 17:30:11
JaeC 45 4min 8.900s. 6 août 2019 17:30:11
105. HappyDi 45 4min 8.983s. 6 août 2019 15:40:32
Кавар 45 4min 8.983s. 6 août 2019 15:40:32
Novokaine 45 4min 8.983s. 6 août 2019 15:40:32
Menapharos 45 4min 8.983s. 6 août 2019 15:40:32
109. LimpBizkit 45 4min 9.966s. 6 août 2019 17:03:50
дедмаксим 45 4min 9.966s. 6 août 2019 17:03:50
ales1976 45 4min 9.966s. 6 août 2019 17:03:50
Zorga 45 4min 9.966s. 6 août 2019 17:03:50
113. Atlantis 45 4min 10.083s. 8 août 2019 16:27:16
P3n1c1LL1n 45 4min 10.083s. 8 août 2019 16:27:16
Syrus 45 4min 10.083s. 8 août 2019 16:27:16
эльфранц 45 4min 10.083s. 8 août 2019 16:27:16
117. Drumy 45 4min 10.299s. 8 août 2019 08:42:50
Roofus 45 4min 10.299s. 8 août 2019 08:42:50
KmCMoH 45 4min 10.299s. 8 août 2019 08:42:50
Сахалинка 45 4min 10.299s. 8 août 2019 08:42:50
121. Thorgal 45 4min 10.466s. 9 août 2019 14:13:52
Bearsum 45 4min 10.466s. 9 août 2019 14:13:52
Simba 45 4min 10.466s. 9 août 2019 14:13:52
Penumbre 45 4min 10.466s. 9 août 2019 14:13:52
125. warpX 45 4min 10.616s. 6 août 2019 16:39:11
Lagonn 45 4min 10.616s. 6 août 2019 16:39:11
Kathani 45 4min 10.616s. 6 août 2019 16:39:11
Loz 45 4min 10.616s. 6 août 2019 16:39:11
129. Sprośnyelf 45 4min 11.033s. 6 août 2019 16:46:38
Polo36133613 45 4min 11.033s. 6 août 2019 16:46:38
Rucdahouse 45 4min 11.033s. 6 août 2019 16:46:38
DeadlyS1ns 45 4min 11.033s. 6 août 2019 16:46:38
133. geolog 45 4min 11.083s. 6 août 2019 12:29:46
EltonManuolo 45 4min 11.083s. 6 août 2019 12:29:46
Ringoton 45 4min 11.083s. 6 août 2019 12:29:46
alzone 45 4min 11.083s. 6 août 2019 12:29:46
137. m4lk4vi4n 45 4min 11.833s. 6 août 2019 20:27:38
BlondGenius 45 4min 11.833s. 6 août 2019 20:27:38
Elleroin 45 4min 11.833s. 6 août 2019 20:27:38
bartas19 45 4min 11.833s. 6 août 2019 20:27:38
141. fait777 45 4min 12.216s. 6 août 2019 21:25:30
Evo 45 4min 12.216s. 6 août 2019 21:25:30
Coldghost 45 4min 12.216s. 6 août 2019 21:25:30
LEBONPLOUC 45 4min 12.216s. 6 août 2019 21:25:30
145. Polosatiy 45 4min 12.333s. 6 août 2019 17:42:37
Литий 45 4min 12.333s. 6 août 2019 17:42:37
Prime 45 4min 12.333s. 6 août 2019 17:42:37
AinZ337 45 4min 12.333s. 6 août 2019 17:42:37
149. Blokada 45 4min 12.750s. 8 août 2019 16:40:46
SuoniSoavi 45 4min 12.750s. 8 août 2019 16:40:46
Market 45 4min 12.750s. 8 août 2019 16:40:46
AsX 45 4min 12.750s. 8 août 2019 16:40:46
153. ŁaBiK 45 4min 12.866s. 6 août 2019 20:55:11
TodesDrache 45 4min 12.866s. 6 août 2019 20:55:11
Nekolii 45 4min 12.866s. 6 août 2019 20:55:11
AVAREC 45 4min 12.866s. 6 août 2019 20:55:11
157. Logan 45 4min 12.866s. 12 août 2019 21:01:07
Ziomuschio 45 4min 12.866s. 12 août 2019 21:01:07
Pillo 45 4min 12.866s. 12 août 2019 21:01:07
HAL9000 45 4min 12.866s. 12 août 2019 21:01:07
161. minion 45 4min 14.916s. 6 août 2019 16:36:18
Stolendreams 45 4min 14.916s. 6 août 2019 16:36:18
EmHa 45 4min 14.916s. 6 août 2019 16:36:18
Teckla 45 4min 14.916s. 6 août 2019 16:36:18
165. RobZombi 45 4min 15.683s. 6 août 2019 19:07:37
PojkkeN 45 4min 15.683s. 6 août 2019 19:07:37
Asmo 45 4min 15.683s. 6 août 2019 19:07:37
Lomondo 45 4min 15.683s. 6 août 2019 19:07:37
169. kralev 45 4min 17.483s. 6 août 2019 19:19:39
wildone 45 4min 17.483s. 6 août 2019 19:19:39
Altair 45 4min 17.483s. 6 août 2019 19:19:39
Swobbe 45 4min 17.483s. 6 août 2019 19:19:39
173. Zero 45 4min 17.866s. 6 août 2019 16:32:07
Slaughter 45 4min 17.866s. 6 août 2019 16:32:07
Extertaler 45 4min 17.866s. 6 août 2019 16:32:07
Kalopatheque 45 4min 17.866s. 6 août 2019 16:32:07
177. Yashko 45 4min 17.966s. 6 août 2019 13:51:08
Vander 45 4min 17.966s. 6 août 2019 13:51:08
ECKHART 45 4min 17.966s. 6 août 2019 13:51:08
180. Дмитрий 45 4min 18.149s. 6 août 2019 13:19:46
Ходок 45 4min 18.149s. 6 août 2019 13:19:46
DEVIL666 45 4min 18.149s. 6 août 2019 13:19:46
Cayne 45 4min 18.149s. 6 août 2019 13:19:46
184. Jhotar1000 45 4min 18.633s. 12 août 2019 19:58:09
Dome 45 4min 18.633s. 12 août 2019 19:58:09
XBauchX 45 4min 18.633s. 12 août 2019 19:58:09
Melrons 45 4min 18.633s. 12 août 2019 19:58:09
188. CoMMoDoo 45 4min 18.966s. 8 août 2019 13:07:00
ArCaShA 45 4min 18.966s. 8 août 2019 13:07:00
Markus 45 4min 18.966s. 8 août 2019 13:07:00
Blackbird 45 4min 18.966s. 8 août 2019 13:07:00
192. Max 45 4min 19.083s. 6 août 2019 08:45:02
DeToshi 45 4min 19.083s. 6 août 2019 08:45:02
SCORPION 45 4min 19.083s. 6 août 2019 08:45:02
Matze 45 4min 19.083s. 6 août 2019 08:45:02
196. Necro 45 4min 19.399s. 11 août 2019 17:59:10
AndyJkp 45 4min 19.399s. 11 août 2019 17:59:10
Hemlock 45 4min 19.399s. 11 août 2019 17:59:10
Ciukson 45 4min 19.399s. 11 août 2019 17:59:10
200. battlelion 45 4min 19.683s. 6 août 2019 10:33:02
kalzam 45 4min 19.683s. 6 août 2019 10:33:02
MaffiaSweden 45 4min 19.683s. 6 août 2019 10:33:02
Dorek 45 4min 19.683s. 6 août 2019 10:33:02
204. svenfinkhaus 45 4min 20.283s. 7 août 2019 15:48:26
HOOWLLL 45 4min 20.283s. 7 août 2019 15:48:26
Apho 45 4min 20.283s. 7 août 2019 15:48:26
MasterDiablo 45 4min 20.283s. 7 août 2019 15:48:26
208. Temethris 45 4min 20.366s. 6 août 2019 13:21:57
Klopfer 45 4min 20.366s. 6 août 2019 13:21:57
Guardzor 45 4min 20.366s. 6 août 2019 13:21:57
arnox1999 45 4min 20.366s. 6 août 2019 13:21:57
212. EvilBlood 45 4min 20.833s. 10 août 2019 11:42:55
CONNOR 45 4min 20.833s. 10 août 2019 11:42:55
Darklady 45 4min 20.833s. 10 août 2019 11:42:55
ricohamburg 45 4min 20.833s. 10 août 2019 11:42:55
216. bernd 45 4min 20.866s. 9 août 2019 14:21:26
Series 45 4min 20.866s. 9 août 2019 14:21:26
Kristoforos 45 4min 20.866s. 9 août 2019 14:21:26
219. Fakky 45 4min 20.866s. 11 août 2019 11:11:31
Varg 45 4min 20.866s. 11 août 2019 11:11:31
AmunRa1981 45 4min 20.866s. 11 août 2019 11:11:31
Peerl 45 4min 20.866s. 11 août 2019 11:11:31
223. Kitra 45 4min 21.666s. 8 août 2019 19:33:36
Ulteraun 45 4min 21.666s. 8 août 2019 19:33:36
Valkyre 45 4min 21.666s. 8 août 2019 19:33:36
Old 45 4min 21.666s. 8 août 2019 19:33:36
227. Feuerfrosch 45 4min 21.816s. 6 août 2019 16:09:21
Morph 45 4min 21.816s. 6 août 2019 16:09:21
Chupy 45 4min 21.816s. 6 août 2019 16:09:21
Justin 45 4min 21.816s. 6 août 2019 16:09:21
231. DEDMAKSIM 45 4min 22.116s. 6 août 2019 06:37:07
Tato 45 4min 22.116s. 6 août 2019 06:37:07
Sandmann 45 4min 22.116s. 6 août 2019 06:37:07
ShadowKing 45 4min 22.116s. 6 août 2019 06:37:07
235. AlbertHermes 45 4min 22.233s. 8 août 2019 18:53:07
Erc 45 4min 22.233s. 8 août 2019 18:53:07
f3nris 45 4min 22.233s. 8 août 2019 18:53:07
Drubio 45 4min 22.233s. 8 août 2019 18:53:07
239. hobbitfrau 45 4min 22.300s. 8 août 2019 21:06:54
pray 45 4min 22.300s. 8 août 2019 21:06:54
viggo5191 45 4min 22.300s. 8 août 2019 21:06:54
Winston3719 45 4min 22.300s. 8 août 2019 21:06:54
243. Cosh 45 4min 22.549s. 6 août 2019 14:39:03
Vatty 45 4min 22.549s. 6 août 2019 14:39:03
Aurora 45 4min 22.549s. 6 août 2019 14:39:03
nicolas 45 4min 22.549s. 6 août 2019 14:39:03
247. Rodan 45 4min 23.050s. 6 août 2019 17:32:56
Roda 45 4min 23.050s. 6 août 2019 17:32:56
Urkec 45 4min 23.050s. 6 août 2019 17:32:56
BRIDGE 45 4min 23.050s. 6 août 2019 17:32:56
251. Rost 45 4min 23.083s. 7 août 2019 20:33:52
Snusmumriken 45 4min 23.083s. 7 août 2019 20:33:52
Schteenen 45 4min 23.083s. 7 août 2019 20:33:52
Zwarp 45 4min 23.083s. 7 août 2019 20:33:52
255. GodEater 45 4min 23.433s. 6 août 2019 09:01:12
Lumueri 45 4min 23.433s. 6 août 2019 09:01:12
aloureiro 45 4min 23.433s. 6 août 2019 09:01:12
Seeulater 45 4min 23.433s. 6 août 2019 09:01:12
259. DonPipe 45 4min 23.516s. 6 août 2019 05:32:47
Yan 45 4min 23.516s. 6 août 2019 05:32:47
SANYPRO 45 4min 23.516s. 6 août 2019 05:32:47
Mestari 45 4min 23.516s. 6 août 2019 05:32:47
263. ЗомбиДракон 45 4min 23.750s. 6 août 2019 16:19:03
Kazekan 45 4min 23.750s. 6 août 2019 16:19:03
Perfekt 45 4min 23.750s. 6 août 2019 16:19:03
Diablo59 45 4min 23.750s. 6 août 2019 16:19:03
267. Manowar 45 4min 24.066s. 5 août 2019 22:11:34
Chabrang 45 4min 24.066s. 5 août 2019 22:11:34
DarkSoul 45 4min 24.066s. 5 août 2019 22:11:34
Noctis 45 4min 24.066s. 5 août 2019 22:11:34
271. Кровельщик 45 4min 24.416s. 6 août 2019 16:20:23
vicar 45 4min 24.416s. 6 août 2019 16:20:23
MrDeth 45 4min 24.416s. 6 août 2019 16:20:23
Asenjo 45 4min 24.416s. 6 août 2019 16:20:23
275. HEMI300c 45 4min 24.750s. 6 août 2019 15:44:21
Trivialcorgi 45 4min 24.750s. 6 août 2019 15:44:21
Дима 45 4min 24.750s. 6 août 2019 15:44:21
NIK 45 4min 24.750s. 6 août 2019 15:44:21
279. orangad25 45 4min 24.983s. 7 août 2019 14:11:30
dunkelgold 45 4min 24.983s. 7 août 2019 14:11:30
Mz4 45 4min 24.983s. 7 août 2019 14:11:30
CiętyBadacz 45 4min 24.983s. 7 août 2019 14:11:30
283. FS255 45 4min 25.083s. 7 août 2019 15:16:22
Vilekko300 45 4min 25.083s. 7 août 2019 15:16:22
karolkopec84 45 4min 25.083s. 7 août 2019 15:16:22
Camulos 45 4min 25.083s. 7 août 2019 15:16:22
287. Emi 45 4min 25.316s. 10 août 2019 15:35:43
Framart 45 4min 25.316s. 10 août 2019 15:35:43
jacobsen 45 4min 25.316s. 10 août 2019 15:35:43
antho849 45 4min 25.316s. 10 août 2019 15:35:43
291. Furao 45 4min 25.500s. 6 août 2019 16:22:30
Zetall 45 4min 25.500s. 6 août 2019 16:22:30
meangene 45 4min 25.500s. 6 août 2019 16:22:30
Decio 45 4min 25.500s. 6 août 2019 16:22:30
295. hondasbr007 45 4min 26.383s. 6 août 2019 14:37:47
Sbartacus 45 4min 26.383s. 6 août 2019 14:37:47
Akinak 45 4min 26.383s. 6 août 2019 14:37:47
Mystery 45 4min 26.383s. 6 août 2019 14:37:47
299. Kawral 45 4min 26.616s. 8 août 2019 17:25:46
DrLivesey 45 4min 26.616s. 8 août 2019 17:25:46
Реснутый 45 4min 26.616s. 8 août 2019 17:25:46
SeaHawk 45 4min 26.616s. 8 août 2019 17:25:46
303. KapitanBomba 45 4min 26.700s. 9 août 2019 15:01:26
Trollo 45 4min 26.700s. 9 août 2019 15:01:26
Arcanya 45 4min 26.700s. 9 août 2019 15:01:26
Gsinnicus 45 4min 26.700s. 9 août 2019 15:01:26
307. DrAshley 45 4min 26.783s. 6 août 2019 07:31:42
haraldaw 45 4min 26.783s. 6 août 2019 07:31:42
PureSkill 45 4min 26.783s. 6 août 2019 07:31:42
Freetrax 45 4min 26.783s. 6 août 2019 07:31:42
311. BananaToggle 45 4min 26.983s. 5 août 2019 22:26:15
Evilhead 45 4min 26.983s. 5 août 2019 22:26:15
Gandanf 45 4min 26.983s. 5 août 2019 22:26:15
rudolfdarken 45 4min 26.983s. 5 août 2019 22:26:15
315. Greyhound 45 4min 27.000s. 6 août 2019 05:42:45
Hammer 45 4min 27.000s. 6 août 2019 05:42:45
Xordas 45 4min 27.000s. 6 août 2019 05:42:45
pabo 45 4min 27.000s. 6 août 2019 05:42:45
319. LenaLafee 45 4min 27.099s. 6 août 2019 18:43:50
Dormor 45 4min 27.099s. 6 août 2019 18:43:50
Braxoor 45 4min 27.099s. 6 août 2019 18:43:50
Kaladin 45 4min 27.099s. 6 août 2019 18:43:50
323. Bella 45 4min 27.116s. 12 août 2019 13:42:04
Andrea 45 4min 27.116s. 12 août 2019 13:42:04
Gâllium 45 4min 27.116s. 12 août 2019 13:42:04
mokarco 45 4min 27.116s. 12 août 2019 13:42:04
327. Timmy 45 4min 27.166s. 6 août 2019 09:03:03
Orpheesae 45 4min 27.166s. 6 août 2019 09:03:03
EXDEMON 45 4min 27.166s. 6 août 2019 09:03:03
Sol 45 4min 27.166s. 6 août 2019 09:03:03
331. luncher 45 4min 27.166s. 7 août 2019 22:51:23
Nailich 45 4min 27.166s. 7 août 2019 22:51:23
Kehn 45 4min 27.166s. 7 août 2019 22:51:23
catitadelao 45 4min 27.166s. 7 août 2019 22:51:23
335. Diabelo2 45 4min 28.216s. 6 août 2019 19:31:18
UkrytySmok 45 4min 28.216s. 6 août 2019 19:31:18
Eldi 45 4min 28.216s. 6 août 2019 19:31:18
Silgai 45 4min 28.216s. 6 août 2019 19:31:18
339. Alex 45 4min 28.366s. 8 août 2019 12:29:38
Perfo 45 4min 28.366s. 8 août 2019 12:29:38
Raiders 45 4min 28.366s. 8 août 2019 12:29:38
DAN30800 45 4min 28.366s. 8 août 2019 12:29:38
343. alex71 45 4min 28.383s. 6 août 2019 08:37:55
Casper08 45 4min 28.383s. 6 août 2019 08:37:55
Galen 45 4min 28.383s. 6 août 2019 08:37:55
Gandor 45 4min 28.383s. 6 août 2019 08:37:55
347. Zibba 45 4min 28.866s. 10 août 2019 13:10:52
NoHax 45 4min 28.866s. 10 août 2019 13:10:52
jjdzat 45 4min 28.866s. 10 août 2019 13:10:52
CaneFantasma 45 4min 28.866s. 10 août 2019 13:10:52
351. oliji 45 4min 29.000s. 8 août 2019 14:10:15
dragonfiere 45 4min 29.000s. 8 août 2019 14:10:15
Gorga 45 4min 29.000s. 8 août 2019 14:10:15
llcuxLioN 45 4min 29.000s. 8 août 2019 14:10:15
355. Mocny 45 4min 29.200s. 6 août 2019 14:16:06
Nemesis 45 4min 29.200s. 6 août 2019 14:16:06
PetrFox 45 4min 29.200s. 6 août 2019 14:16:06
xxxLeksxxx 45 4min 29.200s. 6 août 2019 14:16:06
359. Kaynine 45 4min 29.449s. 12 août 2019 17:18:40
Aqen 45 4min 29.449s. 12 août 2019 17:18:40
maya77 45 4min 29.449s. 12 août 2019 17:18:40
Chenoya 45 4min 29.449s. 12 août 2019 17:18:40
363. Oddy 45 4min 29.733s. 12 août 2019 17:32:52
Sam 45 4min 29.733s. 12 août 2019 17:32:52
Денис 45 4min 29.733s. 12 août 2019 17:32:52
uziel2 45 4min 29.733s. 12 août 2019 17:32:52
367. Rog1 45 4min 29.983s. 6 août 2019 14:05:12
micheltelo 45 4min 29.983s. 6 août 2019 14:05:12
Shadowclaw 45 4min 29.983s. 6 août 2019 14:05:12
WlTGoblin 45 4min 29.983s. 6 août 2019 14:05:12
371. Bolle345 45 4min 30.233s. 7 août 2019 18:06:05
Azx 45 4min 30.233s. 7 août 2019 18:06:05
Venusfalle 45 4min 30.233s. 7 août 2019 18:06:05
Lock 45 4min 30.233s. 7 août 2019 18:06:05
375. Ashrana 45 4min 30.433s. 9 août 2019 20:03:03
MalphVador 45 4min 30.433s. 9 août 2019 20:03:03
Olex 45 4min 30.433s. 9 août 2019 20:03:03
shattra 45 4min 30.433s. 9 août 2019 20:03:03
379. Nyctophilia 45 4min 30.466s. 6 août 2019 11:59:28
Travokyr86 45 4min 30.466s. 6 août 2019 11:59:28
lOnl 45 4min 30.466s. 6 août 2019 11:59:28
Cominomax 45 4min 30.466s. 6 août 2019 11:59:28
383. nanet25 45 4min 30.683s. 10 août 2019 16:32:50
FunkyAce 45 4min 30.683s. 10 août 2019 16:32:50
Pitch 45 4min 30.683s. 10 août 2019 16:32:50
Expel 45 4min 30.683s. 10 août 2019 16:32:50
387. Dias 45 4min 31.300s. 11 août 2019 08:16:28
Sear 45 4min 31.300s. 11 août 2019 08:16:28
As2Mort67 45 4min 31.300s. 11 août 2019 08:16:28
HarleyQuinn 45 4min 31.300s. 11 août 2019 08:16:28
391. rooster 45 4min 31.316s. 9 août 2019 15:52:53
Draganus 45 4min 31.316s. 9 août 2019 15:52:53
Tina1507 45 4min 31.316s. 9 août 2019 15:52:53
Bolle11 45 4min 31.316s. 9 août 2019 15:52:53
395. wojcza255 45 4min 31.450s. 10 août 2019 16:54:36
Drago72 45 4min 31.450s. 10 août 2019 16:54:36
BlackOutz 45 4min 31.450s. 10 août 2019 16:54:36
Bidibulle 45 4min 31.450s. 10 août 2019 16:54:36
399. SchakAl 45 4min 31.533s. 6 août 2019 06:58:04
Alcideas 45 4min 31.533s. 6 août 2019 06:58:04
Nicolino 45 4min 31.533s. 6 août 2019 06:58:04
DeadEye 45 4min 31.533s. 6 août 2019 06:58:04
403. san02061983 45 4min 31.966s. 6 août 2019 17:57:48
MELAFON89 45 4min 31.966s. 6 août 2019 17:57:48
Enigmatic 45 4min 31.966s. 6 août 2019 17:57:48
Головоломка 45 4min 31.966s. 6 août 2019 17:57:48
407. MrsTopBanana 45 4min 32.150s. 8 août 2019 12:21:09
Attri 45 4min 32.150s. 8 août 2019 12:21:09
Huggles 45 4min 32.150s. 8 août 2019 12:21:09
Bunnie 45 4min 32.150s. 8 août 2019 12:21:09
411. Radkor 45 4min 32.750s. 6 août 2019 12:13:46
Everett 45 4min 32.750s. 6 août 2019 12:13:46
Astorius 45 4min 32.750s. 6 août 2019 12:13:46
Amaroc 45 4min 32.750s. 6 août 2019 12:13:46
415. Axeaminator 45 4min 32.933s. 6 août 2019 19:56:59
HeRrO 45 4min 32.933s. 6 août 2019 19:56:59
Goliaf 45 4min 32.933s. 6 août 2019 19:56:59
DarkLady 45 4min 32.933s. 6 août 2019 19:56:59
419. Brixi 45 4min 33.166s. 6 août 2019 10:24:27
shpalov 45 4min 33.166s. 6 août 2019 10:24:27
Daimos 45 4min 33.166s. 6 août 2019 10:24:27
422. DaHamster 45 4min 33.383s. 6 août 2019 13:45:12
Mustalk 45 4min 33.383s. 6 août 2019 13:45:12
Ptsn 45 4min 33.383s. 6 août 2019 13:45:12
F1rstSteP 45 4min 33.383s. 6 août 2019 13:45:12
426. DARAS1979 45 4min 33.400s. 6 août 2019 15:29:32
BlackFaol 45 4min 33.400s. 6 août 2019 15:29:32
OdcTerranR0 45 4min 33.400s. 6 août 2019 15:29:32
клим 45 4min 33.400s. 6 août 2019 15:29:32
430. Maden 45 4min 33.766s. 7 août 2019 15:40:36
oyranos 45 4min 33.766s. 7 août 2019 15:40:36
kerry1912 45 4min 33.766s. 7 août 2019 15:40:36
hubabuba 45 4min 33.766s. 7 août 2019 15:40:36
434. iPorn 45 4min 33.850s. 8 août 2019 19:08:24
Bendito 45 4min 33.850s. 8 août 2019 19:08:24
KENNI 45 4min 33.850s. 8 août 2019 19:08:24
ICKratos 45 4min 33.850s. 8 août 2019 19:08:24
438. kretooo12 45 4min 34.033s. 7 août 2019 15:30:58
Tomoyo 45 4min 34.033s. 7 août 2019 15:30:58
Dino 45 4min 34.033s. 7 août 2019 15:30:58
Outrage1905 45 4min 34.033s. 7 août 2019 15:30:58
442. Futurism 45 4min 34.066s. 6 août 2019 12:57:24
Arthur 45 4min 34.066s. 6 août 2019 12:57:24
iceman 45 4min 34.066s. 6 août 2019 12:57:24
ЛоЛо 45 4min 34.066s. 6 août 2019 12:57:24
446. Gandalf 45 4min 34.183s. 6 août 2019 18:12:56
Coolesz 45 4min 34.183s. 6 août 2019 18:12:56
Владимир 45 4min 34.183s. 6 août 2019 18:12:56
Mario 45 4min 34.183s. 6 août 2019 18:12:56
450. FrostNoc 45 4min 34.283s. 5 août 2019 22:31:32
ch1rurg 45 4min 34.283s. 5 août 2019 22:31:32
Nook 45 4min 34.283s. 5 août 2019 22:31:32
Vulkor 45 4min 34.283s. 5 août 2019 22:31:32
454. levadomin 45 4min 34.500s. 10 août 2019 15:21:35
FrischesBlut 45 4min 34.500s. 10 août 2019 15:21:35
mcpatrick 45 4min 34.500s. 10 août 2019 15:21:35
maximus 45 4min 34.500s. 10 août 2019 15:21:35
458. S4pHir0 45 4min 34.716s. 11 août 2019 13:11:06
Yuri 45 4min 34.716s. 11 août 2019 13:11:06
Stormhed 45 4min 34.716s. 11 août 2019 13:11:06
Oberon 45 4min 34.716s. 11 août 2019 13:11:06
462. elladatom 45 4min 35.116s. 6 août 2019 14:08:35
deadman 45 4min 35.116s. 6 août 2019 14:08:35
spike 45 4min 35.116s. 6 août 2019 14:08:35
HOWDHOTS 45 4min 35.116s. 6 août 2019 14:08:35
466. Poh 45 4min 35.200s. 6 août 2019 18:06:57
Bomholt 45 4min 35.200s. 6 août 2019 18:06:57
Noziroh 45 4min 35.200s. 6 août 2019 18:06:57
Copius 45 4min 35.200s. 6 août 2019 18:06:57
470. jobbet 45 4min 35.333s. 9 août 2019 00:37:07
RoulioBarbeN 45 4min 35.333s. 9 août 2019 00:37:07
Crunch 45 4min 35.333s. 9 août 2019 00:37:07
Nexxo 45 4min 35.333s. 9 août 2019 00:37:07
474. Kroha 45 4min 35.816s. 6 août 2019 17:49:07
yaxim 45 4min 35.816s. 6 août 2019 17:49:07
Shinzumi 45 4min 35.816s. 6 août 2019 17:49:07
goSairus 45 4min 35.816s. 6 août 2019 17:49:07
478. flitsch 45 4min 35.950s. 9 août 2019 17:45:53
headd 45 4min 35.950s. 9 août 2019 17:45:53
Excesionz 45 4min 35.950s. 9 août 2019 17:45:53
PaykChelovek 45 4min 35.950s. 9 août 2019 17:45:53
482. Kwisatz 45 4min 36.149s. 6 août 2019 14:31:43
ilmrynDeVir 45 4min 36.149s. 6 août 2019 14:31:43
Nomad13 45 4min 36.149s. 6 août 2019 14:31:43
Wintermacht 45 4min 36.149s. 6 août 2019 14:31:43
486. K1ll3r 45 4min 36.699s. 12 août 2019 19:24:47
Kouga 45 4min 36.699s. 12 août 2019 19:24:47
PepsiFandaCZ 45 4min 36.699s. 12 août 2019 19:24:47
Maggus 45 4min 36.699s. 12 août 2019 19:24:47
490. jan 45 4min 36.716s. 6 août 2019 10:50:00
Caligula 45 4min 36.716s. 6 août 2019 10:50:00
inhuman 45 4min 36.716s. 6 août 2019 10:50:00
493. cfjooker 45 4min 37.050s. 10 août 2019 08:42:17
JustinCase 45 4min 37.050s. 10 août 2019 08:42:17
h4adsh0t 45 4min 37.050s. 10 août 2019 08:42:17
Tazik 45 4min 37.050s. 10 août 2019 08:42:17
497. SaintDruG 45 4min 37.266s. 6 août 2019 10:21:04
Tylarian 45 4min 37.266s. 6 août 2019 10:21:04
Isik 45 4min 37.266s. 6 août 2019 10:21:04
DopeBat 45 4min 37.266s. 6 août 2019 10:21:04
501. БЕЛЫЙ21 45 4min 37.683s. 6 août 2019 15:14:29
Bovos 45 4min 37.683s. 6 août 2019 15:14:29
LuckyPants 45 4min 37.683s. 6 août 2019 15:14:29
504. BlessedByGod 45 4min 37.900s. 6 août 2019 15:19:04
DrefPlay 45 4min 37.900s. 6 août 2019 15:19:04
TinyFlo 45 4min 37.900s. 6 août 2019 15:19:04
TOMEKJACK97 45 4min 37.900s. 6 août 2019 15:19:04
508. XaidaSahanya 45 4min 38.133s. 8 août 2019 22:31:42
wontonon 45 4min 38.133s. 8 août 2019 22:31:42
Zerberus 45 4min 38.133s. 8 août 2019 22:31:42
Krümelkrume 45 4min 38.133s. 8 août 2019 22:31:42
512. artrockrock 45 4min 38.233s. 6 août 2019 15:27:18
kili03 45 4min 38.233s. 6 août 2019 15:27:18
Rossi 45 4min 38.233s. 6 août 2019 15:27:18
KarulDarkl 45 4min 38.233s. 6 août 2019 15:27:18
516. Devil3 45 4min 38.533s. 6 août 2019 08:12:31
Pêrtô 45 4min 38.533s. 6 août 2019 08:12:31
Rippy 45 4min 38.533s. 6 août 2019 08:12:31
AngelJana 45 4min 38.533s. 6 août 2019 08:12:31
520. FallenWolf 45 4min 38.633s. 8 août 2019 13:15:11
Агент07 45 4min 38.633s. 8 août 2019 13:15:11
And 45 4min 38.633s. 8 août 2019 13:15:11
Vlad 45 4min 38.633s. 8 août 2019 13:15:11
524. RAM 45 4min 38.783s. 7 août 2019 17:40:15
Chotkar 45 4min 38.783s. 7 août 2019 17:40:15
Renegat 45 4min 38.783s. 7 août 2019 17:40:15
SARAGORN 45 4min 38.783s. 7 août 2019 17:40:15
528. IWTB 45 4min 39.116s. 6 août 2019 18:05:57
OverVault 45 4min 39.116s. 6 août 2019 18:05:57
XxITACHIXx 45 4min 39.116s. 6 août 2019 18:05:57
qwertoya 45 4min 39.116s. 6 août 2019 18:05:57
532. OroJackson 45 4min 39.533s. 8 août 2019 07:20:59
Sinister 45 4min 39.533s. 8 août 2019 07:20:59
Nergal 45 4min 39.533s. 8 août 2019 07:20:59
Gorman 45 4min 39.533s. 8 août 2019 07:20:59
536. Zarniwhoop 45 4min 39.549s. 6 août 2019 17:33:32
waterangel 45 4min 39.549s. 6 août 2019 17:33:32
ZloStar 45 4min 39.549s. 6 août 2019 17:33:32
Chris86 45 4min 39.549s. 6 août 2019 17:33:32
540. Jsmc67 45 4min 39.583s. 9 août 2019 16:25:48
Mercerenies 45 4min 39.583s. 9 août 2019 16:25:48
FrostyFeet 45 4min 39.583s. 9 août 2019 16:25:48
crashdown 45 4min 39.583s. 9 août 2019 16:25:48
544. Grotesk 45 4min 40.033s. 6 août 2019 19:17:02
victorgonal 45 4min 40.033s. 6 août 2019 19:17:02
Arki 45 4min 40.033s. 6 août 2019 19:17:02
KRON42 45 4min 40.033s. 6 août 2019 19:17:02
548. Deatharte 45 4min 40.049s. 6 août 2019 15:59:21
Purity 45 4min 40.049s. 6 août 2019 15:59:21
SilverHawk 45 4min 40.049s. 6 août 2019 15:59:21
Ext 45 4min 40.049s. 6 août 2019 15:59:21
552. Komorn1k 45 4min 40.083s. 7 août 2019 21:44:45
oWcZaR 45 4min 40.083s. 7 août 2019 21:44:45
lolipop 45 4min 40.083s. 7 août 2019 21:44:45
Chi 45 4min 40.083s. 7 août 2019 21:44:45
556. kaoz 45 4min 40.150s. 5 août 2019 22:17:07
파멸의전사 45 4min 40.150s. 5 août 2019 22:17:07
alexdicko 45 4min 40.150s. 5 août 2019 22:17:07
Cainhl 45 4min 40.150s. 5 août 2019 22:17:07
560. NewDark 45 4min 40.233s. 7 août 2019 13:48:07
KoHditeR 45 4min 40.233s. 7 août 2019 13:48:07
GermanXRaY 45 4min 40.233s. 7 août 2019 13:48:07
Firemanfire 45 4min 40.233s. 7 août 2019 13:48:07
564. Madren 45 4min 40.366s. 8 août 2019 19:58:39
ALEX007 45 4min 40.366s. 8 août 2019 19:58:39
Snake 45 4min 40.366s. 8 août 2019 19:58:39
GnooS 45 4min 40.366s. 8 août 2019 19:58:39
568. Lacus 45 4min 40.483s. 6 août 2019 13:11:19
stewö 45 4min 40.483s. 6 août 2019 13:11:19
RedDevil395 45 4min 40.483s. 6 août 2019 13:11:19
Wissle 45 4min 40.483s. 6 août 2019 13:11:19
572. Newbie 45 4min 40.483s. 6 août 2019 13:57:38
SilenceLo 45 4min 40.483s. 6 août 2019 13:57:38
Cinek 45 4min 40.483s. 6 août 2019 13:57:38
dandy 45 4min 40.483s. 6 août 2019 13:57:38
576. Miklagaard 45 4min 40.666s. 6 août 2019 17:16:38
SinChikko 45 4min 40.666s. 6 août 2019 17:16:38
Markus 45 4min 40.666s. 6 août 2019 17:16:38
MadaraGR 45 4min 40.666s. 6 août 2019 17:16:38
580. Zizopo 45 4min 41.066s. 5 août 2019 23:08:10
omoz 45 4min 41.066s. 5 août 2019 23:08:10
REDCAP 45 4min 41.066s. 5 août 2019 23:08:10
MeterPaffay1 45 4min 41.066s. 5 août 2019 23:08:10
584. TJay 45 4min 41.200s. 5 août 2019 23:33:25
pmania 45 4min 41.200s. 5 août 2019 23:33:25
mote 45 4min 41.200s. 5 août 2019 23:33:25
nohame 45 4min 41.200s. 5 août 2019 23:33:25
588. XaMon 45 4min 41.316s. 6 août 2019 16:51:04
Chev 45 4min 41.316s. 6 août 2019 16:51:04
Atzepeng 45 4min 41.316s. 6 août 2019 16:51:04
DIMOS 45 4min 41.316s. 6 août 2019 16:51:04
592. Zuljin 45 4min 41.383s. 12 août 2019 16:22:51
Kane74 45 4min 41.383s. 12 août 2019 16:22:51
Dalinar 45 4min 41.383s. 12 août 2019 16:22:51
dimit76 45 4min 41.383s. 12 août 2019 16:22:51
596. Bigmoose 45 4min 41.400s. 6 août 2019 19:17:24
CriminalKing 45 4min 41.400s. 6 août 2019 19:17:24
Bellandy 45 4min 41.400s. 6 août 2019 19:17:24
BlackDragon 45 4min 41.400s. 6 août 2019 19:17:24
600. Dragon 45 4min 41.783s. 11 août 2019 12:24:54
Shrekt 45 4min 41.783s. 11 août 2019 12:24:54
tidde 45 4min 41.783s. 11 août 2019 12:24:54
Trølløkøre 45 4min 41.783s. 11 août 2019 12:24:54
604. sebastien122 45 4min 41.833s. 6 août 2019 23:00:53
The69 45 4min 41.833s. 6 août 2019 23:00:53
Kronos 45 4min 41.833s. 6 août 2019 23:00:53
Hematosa 45 4min 41.833s. 6 août 2019 23:00:53
608. Mam00th 45 4min 41.883s. 9 août 2019 09:44:50
OjoPipa89 45 4min 41.883s. 9 août 2019 09:44:50
Yämada 45 4min 41.883s. 9 août 2019 09:44:50
Nettle848 45 4min 41.883s. 9 août 2019 09:44:50
612. kozymandiask 45 4min 41.900s. 8 août 2019 15:51:29
DASFGAS 45 4min 41.900s. 8 août 2019 15:51:29
Warrior 45 4min 41.900s. 8 août 2019 15:51:29
Masic7777 45 4min 41.900s. 8 août 2019 15:51:29
616. T0814s 45 4min 42.049s. 6 août 2019 19:33:46
Hannibal 45 4min 42.049s. 6 août 2019 19:33:46
Micha 45 4min 42.049s. 6 août 2019 19:33:46
Madax 45 4min 42.049s. 6 août 2019 19:33:46
620. Askens 45 4min 42.233s. 11 août 2019 15:04:20
Senzeu 45 4min 42.233s. 11 août 2019 15:04:20
HHJ 45 4min 42.233s. 11 août 2019 15:04:20
ConqrX 45 4min 42.233s. 11 août 2019 15:04:20
624. Martin 45 4min 42.650s. 6 août 2019 17:48:13
Prismo 45 4min 42.650s. 6 août 2019 17:48:13
Danilak222 45 4min 42.650s. 6 août 2019 17:48:13
Cøyøte 45 4min 42.650s. 6 août 2019 17:48:13
628. Demon 45 4min 42.966s. 6 août 2019 17:12:43
abigor 45 4min 42.966s. 6 août 2019 17:12:43
Kopp 45 4min 42.966s. 6 août 2019 17:12:43
NightKnight 45 4min 42.966s. 6 août 2019 17:12:43
632. Batzodor 45 4min 43.083s. 10 août 2019 07:22:59
Webvirus 45 4min 43.083s. 10 août 2019 07:22:59
xillao 45 4min 43.083s. 10 août 2019 07:22:59
yurikotlvch 45 4min 43.083s. 10 août 2019 07:22:59
636. Vaqua 45 4min 43.750s. 6 août 2019 10:19:30
Zax 45 4min 43.750s. 6 août 2019 10:19:30
huighoek1981 45 4min 43.750s. 6 août 2019 10:19:30
Inliner 45 4min 43.750s. 6 août 2019 10:19:30
640. Nexcell 45 4min 43.766s. 8 août 2019 17:23:47
Seatroutman 45 4min 43.766s. 8 août 2019 17:23:47
Fenrir 45 4min 43.766s. 8 août 2019 17:23:47
Logan 45 4min 43.766s. 8 août 2019 17:23:47
644. Cowzikan 45 4min 43.883s. 6 août 2019 09:05:16
Chevastagaz 45 4min 43.883s. 6 août 2019 09:05:16
Orm 45 4min 43.883s. 6 août 2019 09:05:16
647. Pezzwe 45 4min 44.200s. 9 août 2019 15:22:49
MrUrwin 45 4min 44.200s. 9 août 2019 15:22:49
Robi 45 4min 44.200s. 9 août 2019 15:22:49
Kutyaa 45 4min 44.200s. 9 août 2019 15:22:49
651. LEON 45 4min 44.416s. 6 août 2019 18:03:56
Traslatan 45 4min 44.416s. 6 août 2019 18:03:56
Binjdza 45 4min 44.416s. 6 août 2019 18:03:56
Crash 45 4min 44.416s. 6 août 2019 18:03:56
655. szymon23 45 4min 44.433s. 7 août 2019 20:19:15
Solutions74 45 4min 44.433s. 7 août 2019 20:19:15
LuK 45 4min 44.433s. 7 août 2019 20:19:15
Sordii 45 4min 44.433s. 7 août 2019 20:19:15
659. Petrvz 45 4min 44.816s. 9 août 2019 09:25:06
Grixanator 45 4min 44.816s. 9 août 2019 09:25:06
archer95 45 4min 44.816s. 9 août 2019 09:25:06
Karpul 45 4min 44.816s. 9 août 2019 09:25:06
663. Jarru 45 4min 44.933s. 7 août 2019 21:17:06
MrrKostusS 45 4min 44.933s. 7 août 2019 21:17:06
vale124 45 4min 44.933s. 7 août 2019 21:17:06
ste144 45 4min 44.933s. 7 août 2019 21:17:06
667. nissesslife 45 4min 44.950s. 6 août 2019 20:34:05
Xsatrix 45 4min 44.950s. 6 août 2019 20:34:05
pirat 45 4min 44.950s. 6 août 2019 20:34:05
670. RogueGW 45 4min 45.383s. 6 août 2019 16:05:10
Beltrah 45 4min 45.383s. 6 août 2019 16:05:10
Sabine20 45 4min 45.383s. 6 août 2019 16:05:10
BOBEO 45 4min 45.383s. 6 août 2019 16:05:10
674. TeKo 45 4min 45.450s. 6 août 2019 16:26:15
Seborian 45 4min 45.450s. 6 août 2019 16:26:15
GEO 45 4min 45.450s. 6 août 2019 16:26:15
apocalypsys 45 4min 45.450s. 6 août 2019 16:26:15
678. RHW 45 4min 45.599s. 6 août 2019 17:20:54
Duroteel 45 4min 45.599s. 6 août 2019 17:20:54
vipok 45 4min 45.599s. 6 août 2019 17:20:54
Maraquia 45 4min 45.599s. 6 août 2019 17:20:54
682. AlisenokKrsk 45 4min 45.633s. 6 août 2019 06:08:00
VinSang 45 4min 45.633s. 6 août 2019 06:08:00
methusalem 45 4min 45.633s. 6 août 2019 06:08:00
Qickill 45 4min 45.633s. 6 août 2019 06:08:00
686. cHiLLi 45 4min 45.683s. 6 août 2019 21:20:00
Darkone 45 4min 45.683s. 6 août 2019 21:20:00
medhi 45 4min 45.683s. 6 août 2019 21:20:00
689. JohnnySK 45 4min 45.983s. 8 août 2019 16:56:56
Смертохвост 45 4min 45.983s. 8 août 2019 16:56:56
Ejdm 45 4min 45.983s. 8 août 2019 16:56:56
ЗаАльянс 45 4min 45.983s. 8 août 2019 16:56:56
693. elettrician 45 4min 46.133s. 6 août 2019 09:28:50
Fremen 45 4min 46.133s. 6 août 2019 09:28:50
IoWnYoU 45 4min 46.133s. 6 août 2019 09:28:50
696. Wanderer 45 4min 46.416s. 5 août 2019 22:20:10
DareTF 45 4min 46.416s. 5 août 2019 22:20:10
msal 45 4min 46.416s. 5 août 2019 22:20:10
Combos 45 4min 46.416s. 5 août 2019 22:20:10
700. Zforce 45 4min 46.450s. 11 août 2019 12:45:58
szgn 45 4min 46.450s. 11 août 2019 12:45:58
Poxyust 45 4min 46.450s. 11 août 2019 12:45:58
703. DonnieBrasko 45 4min 46.733s. 6 août 2019 18:47:23
YMCKING 45 4min 46.733s. 6 août 2019 18:47:23
Hatab 45 4min 46.733s. 6 août 2019 18:47:23
AgentSeriy 45 4min 46.733s. 6 août 2019 18:47:23
707. DEATHHUNTER 45 4min 46.800s. 10 août 2019 13:13:39
Reyjin 45 4min 46.800s. 10 août 2019 13:13:39
Charlemagne 45 4min 46.800s. 10 août 2019 13:13:39
Vossler 45 4min 46.800s. 10 août 2019 13:13:39
711. Kroki 45 4min 47.600s. 7 août 2019 19:22:19
Kratzbürst 45 4min 47.600s. 7 août 2019 19:22:19
korruption21 45 4min 47.600s. 7 août 2019 19:22:19
Arkangyal 45 4min 47.600s. 7 août 2019 19:22:19
715. Ayezar 45 4min 47.616s. 11 août 2019 12:42:40
meiher77 45 4min 47.616s. 11 août 2019 12:42:40
Divelwolf 45 4min 47.616s. 11 août 2019 12:42:40
Gentaki 45 4min 47.616s. 11 août 2019 12:42:40
719. Максим 45 4min 47.650s. 11 août 2019 17:39:06
doolab 45 4min 47.650s. 11 août 2019 17:39:06
Likzaz 45 4min 47.650s. 11 août 2019 17:39:06
Roadhouse 45 4min 47.650s. 11 août 2019 17:39:06
723. РОМЭЭО 45 4min 47.833s. 6 août 2019 11:38:12
Нуэ 45 4min 47.833s. 6 août 2019 11:38:12
ASTRANAVTz0r 45 4min 47.833s. 6 août 2019 11:38:12
slavuny36 45 4min 47.833s. 6 août 2019 11:38:12
727. Amazônia 45 4min 47.900s. 6 août 2019 16:34:42
Joschi 45 4min 47.900s. 6 août 2019 16:34:42
GrafZeus 45 4min 47.900s. 6 août 2019 16:34:42
ShinyHero 45 4min 47.900s. 6 août 2019 16:34:42
731. Phoentice 45 4min 48.366s. 8 août 2019 08:29:04
Bladers 45 4min 48.366s. 8 août 2019 08:29:04
Dakha 45 4min 48.366s. 8 août 2019 08:29:04
Sedoy86 45 4min 48.366s. 8 août 2019 08:29:04
735. Aleith 45 4min 48.516s. 8 août 2019 19:28:44
deadmaker 45 4min 48.516s. 8 août 2019 19:28:44
Vekxal 45 4min 48.516s. 8 août 2019 19:28:44
Silent 45 4min 48.516s. 8 août 2019 19:28:44
739. Runde 45 4min 48.583s. 6 août 2019 18:30:00
Pafkey 45 4min 48.583s. 6 août 2019 18:30:00
ffallen 45 4min 48.583s. 6 août 2019 18:30:00
742. LOTODIVX 45 4min 48.633s. 6 août 2019 14:57:54
MrSmatch 45 4min 48.633s. 6 août 2019 14:57:54
Dogi 45 4min 48.633s. 6 août 2019 14:57:54
745. DziwnyKruk 45 4min 48.716s. 10 août 2019 17:51:42
So1Dat 45 4min 48.716s. 10 août 2019 17:51:42
roman 45 4min 48.716s. 10 août 2019 17:51:42
Rathraq 45 4min 48.716s. 10 août 2019 17:51:42
749. Lobardo 45 4min 48.966s. 7 août 2019 20:36:33
nikievelik 45 4min 48.966s. 7 août 2019 20:36:33
peterocktico 45 4min 48.966s. 7 août 2019 20:36:33
arc 45 4min 48.966s. 7 août 2019 20:36:33
753. asHDi 45 4min 49.033s. 6 août 2019 18:45:09
ivan 45 4min 49.033s. 6 août 2019 18:45:09
Maneur 45 4min 49.033s. 6 août 2019 18:45:09
Mojash 45 4min 49.033s. 6 août 2019 18:45:09
757. Tom 45 4min 49.166s. 10 août 2019 21:52:31
kwlogeras 45 4min 49.166s. 10 août 2019 21:52:31
Clareise 45 4min 49.166s. 10 août 2019 21:52:31
Zacapa71 45 4min 49.166s. 10 août 2019 21:52:31
761. Gor 45 4min 49.216s. 5 août 2019 22:09:17
Grommkus 45 4min 49.216s. 5 août 2019 22:09:17
Squishy 45 4min 49.216s. 5 août 2019 22:09:17
Kuwalda 45 4min 49.216s. 5 août 2019 22:09:17
765. Alezja 45 4min 49.250s. 7 août 2019 11:52:40
T4K 45 4min 49.250s. 7 août 2019 11:52:40
sekhmet 45 4min 49.250s. 7 août 2019 11:52:40
Hektor 45 4min 49.250s. 7 août 2019 11:52:40
769. ForFun 45 4min 49.450s. 7 août 2019 17:03:18
Stahni74 45 4min 49.450s. 7 août 2019 17:03:18
Gordane 45 4min 49.450s. 7 août 2019 17:03:18
greghouse 45 4min 49.450s. 7 août 2019 17:03:18
773. gianrichard 45 4min 49.866s. 6 août 2019 20:26:05
REPEKA 45 4min 49.866s. 6 août 2019 20:26:05
Mortana 45 4min 49.866s. 6 août 2019 20:26:05
LORDofBLACK 45 4min 49.866s. 6 août 2019 20:26:05
777. BONDuK72rus 45 4min 49.866s. 9 août 2019 15:22:12
HiMa 45 4min 49.866s. 9 août 2019 15:22:12
zeka59100 45 4min 49.866s. 9 août 2019 15:22:12
Vaniliowa69 45 4min 49.866s. 9 août 2019 15:22:12
781. Zina 45 4min 50.183s. 8 août 2019 07:55:44
Kalibain 45 4min 50.183s. 8 août 2019 07:55:44
spiritalist 45 4min 50.183s. 8 août 2019 07:55:44
ЧудоГоблин 45 4min 50.183s. 8 août 2019 07:55:44
785. indiezeus 45 4min 50.366s. 6 août 2019 09:33:33
Oskar 45 4min 50.366s. 6 août 2019 09:33:33
victorl 45 4min 50.366s. 6 août 2019 09:33:33
MasterDeidar 45 4min 50.366s. 6 août 2019 09:33:33
789. NKallander 45 4min 50.533s. 7 août 2019 19:04:47
Jalna 45 4min 50.533s. 7 août 2019 19:04:47
deathdevil 45 4min 50.533s. 7 août 2019 19:04:47
Wealth 45 4min 50.533s. 7 août 2019 19:04:47
793. LordGSM 45 4min 50.549s. 6 août 2019 18:19:11
Mufflon 45 4min 50.549s. 6 août 2019 18:19:11
Dronko 45 4min 50.549s. 6 août 2019 18:19:11
Van 45 4min 50.549s. 6 août 2019 18:19:11
797. Achant 45 4min 50.733s. 7 août 2019 18:00:01
Pelleman 45 4min 50.733s. 7 août 2019 18:00:01
tidus19 45 4min 50.733s. 7 août 2019 18:00:01
800. MoniQue 45 4min 50.900s. 8 août 2019 20:35:11
KeRy 45 4min 50.900s. 8 août 2019 20:35:11
N1ghtmare 45 4min 50.900s. 8 août 2019 20:35:11
DeathStalker 45 4min 50.900s. 8 août 2019 20:35:11
804. Slonini 45 4min 50.983s. 5 août 2019 22:34:48
DRACO 45 4min 50.983s. 5 août 2019 22:34:48
VIPer 45 4min 50.983s. 5 août 2019 22:34:48
mishgail 45 4min 50.983s. 5 août 2019 22:34:48
808. Bamzelot 45 4min 51.233s. 6 août 2019 14:30:26
klopix 45 4min 51.233s. 6 août 2019 14:30:26
suwette 45 4min 51.233s. 6 août 2019 14:30:26
fray 45 4min 51.233s. 6 août 2019 14:30:26
812. Jouns 45 4min 51.333s. 7 août 2019 21:07:12
Yusuf 45 4min 51.333s. 7 août 2019 21:07:12
Dren 45 4min 51.333s. 7 août 2019 21:07:12
Kampffrosch 45 4min 51.333s. 7 août 2019 21:07:12
816. Sook 45 4min 51.350s. 6 août 2019 16:44:13
Glotzgurke 45 4min 51.350s. 6 août 2019 16:44:13
Desertwind 45 4min 51.350s. 6 août 2019 16:44:13
Kanason 45 4min 51.350s. 6 août 2019 16:44:13
820. Ингибитор 45 4min 51.800s. 8 août 2019 14:27:09
Jales 45 4min 51.800s. 8 août 2019 14:27:09
sygen 45 4min 51.800s. 8 août 2019 14:27:09
DireRaven 45 4min 51.800s. 8 août 2019 14:27:09
824. dolvic7 45 4min 52.183s. 9 août 2019 16:54:26
mog 45 4min 52.183s. 9 août 2019 16:54:26
MikuHatsune 45 4min 52.183s. 9 août 2019 16:54:26
Soyut 45 4min 52.183s. 9 août 2019 16:54:26
828. Spees 45 4min 52.416s. 11 août 2019 17:55:13
Syfo 45 4min 52.416s. 11 août 2019 17:55:13
aWolf 45 4min 52.416s. 11 août 2019 17:55:13
831. Gaahl 45 4min 52.449s. 8 août 2019 20:13:16
NasosBar 45 4min 52.449s. 8 août 2019 20:13:16
Nolan 45 4min 52.449s. 8 août 2019 20:13:16
834. WarintusXD 45 4min 52.599s. 10 août 2019 07:05:01
Корсар 45 4min 52.599s. 10 août 2019 07:05:01
ValiriaN 45 4min 52.599s. 10 août 2019 07:05:01
AxuJlec 45 4min 52.599s. 10 août 2019 07:05:01
838. bringfried 45 4min 52.833s. 5 août 2019 22:12:43
stranger 45 4min 52.833s. 5 août 2019 22:12:43
mchardy 45 4min 52.833s. 5 août 2019 22:12:43
GizmO 45 4min 52.833s. 5 août 2019 22:12:43
842. Kaih 45 4min 53.216s. 10 août 2019 11:16:23
sos33 45 4min 53.216s. 10 août 2019 11:16:23
LEGIONRU 45 4min 53.216s. 10 août 2019 11:16:23
Azrael 45 4min 53.216s. 10 août 2019 11:16:23
846. JUMP666 45 4min 54.500s. 7 août 2019 21:30:04
Daimon 45 4min 54.500s. 7 août 2019 21:30:04
NaypoN 45 4min 54.500s. 7 août 2019 21:30:04
849. Ruuvipää 45 4min 54.583s. 12 août 2019 17:52:37
FeliPWR 45 4min 54.583s. 12 août 2019 17:52:37
Nebjeprur 45 4min 54.583s. 12 août 2019 17:52:37
852. BINHOBERDE 45 4min 55.616s. 6 août 2019 10:27:23
sven 45 4min 55.616s. 6 août 2019 10:27:23
Stardustfire 45 4min 55.616s. 6 août 2019 10:27:23
Bumfrosch 45 4min 55.616s. 6 août 2019 10:27:23
856. deledin 45 4min 55.966s. 5 août 2019 23:15:47
Galdmake 45 4min 55.966s. 5 août 2019 23:15:47
Sonbol 45 4min 55.966s. 5 août 2019 23:15:47
Oeciac 45 4min 55.966s. 5 août 2019 23:15:47
860. Batonotlike 45 4min 56.333s. 8 août 2019 21:59:51
Akimmu 45 4min 56.333s. 8 août 2019 21:59:51
cZ4rnY 45 4min 56.333s. 8 août 2019 21:59:51
863. gangrène 45 4min 56.750s. 6 août 2019 17:54:54
Kabumno 45 4min 56.750s. 6 août 2019 17:54:54
DarkSouls 45 4min 56.750s. 6 août 2019 17:54:54
866. Akumo 45 4min 56.783s. 9 août 2019 20:38:49
Epoch 45 4min 56.783s. 9 août 2019 20:38:49
CRONI 45 4min 56.783s. 9 août 2019 20:38:49
869. Смертомышь 45 4min 57.000s. 8 août 2019 21:09:40
Processor 45 4min 57.000s. 8 août 2019 21:09:40
James 45 4min 57.000s. 8 août 2019 21:09:40
Grisk 45 4min 57.000s. 8 août 2019 21:09:40
873. Wizardy 45 4min 57.150s. 11 août 2019 17:11:24
PaVeL 45 4min 57.150s. 11 août 2019 17:11:24
Mallkorr 45 4min 57.150s. 11 août 2019 17:11:24
876. Royal 45 4min 57.183s. 9 août 2019 12:37:44
LinkOnizuka 45 4min 57.183s. 9 août 2019 12:37:44
Delorey 45 4min 57.183s. 9 août 2019 12:37:44
CochsyMC 45 4min 57.183s. 9 août 2019 12:37:44
880. crysis 45 4min 57.416s. 7 août 2019 09:41:27
Olivier 45 4min 57.416s. 7 août 2019 09:41:27
Frenky 45 4min 57.416s. 7 août 2019 09:41:27
883. Arya 45 4min 57.833s. 6 août 2019 09:04:49
renesmid 45 4min 57.833s. 6 août 2019 09:04:49
iceblue 45 4min 57.833s. 6 août 2019 09:04:49
Andriel 45 4min 57.833s. 6 août 2019 09:04:49
887. chrome 45 4min 58.116s. 11 août 2019 19:30:56
ZeXoX 45 4min 58.116s. 11 août 2019 19:30:56
abc 45 4min 58.116s. 11 août 2019 19:30:56
890. tieeru 45 4min 58.233s. 6 août 2019 15:06:32
Assasin 45 4min 58.233s. 6 août 2019 15:06:32
Snake 45 4min 58.233s. 6 août 2019 15:06:32
Журбелло 45 4min 58.233s. 6 août 2019 15:06:32
894. Mytanter 45 4min 58.833s. 9 août 2019 18:51:05
GamerTeddy 45 4min 58.833s. 9 août 2019 18:51:05
Daross 45 4min 58.833s. 9 août 2019 18:51:05
Grz3si0 45 4min 58.833s. 9 août 2019 18:51:05
898. Mechanica 45 4min 59.016s. 6 août 2019 13:54:10
Highfirpo118 45 4min 59.016s. 6 août 2019 13:54:10
loulou 45 4min 59.016s. 6 août 2019 13:54:10
GoldFish 45 4min 59.016s. 6 août 2019 13:54:10
902. Ehldarion 45 4min 59.316s. 12 août 2019 18:32:46
Binka 45 4min 59.316s. 12 août 2019 18:32:46
PartiZan 45 4min 59.316s. 12 août 2019 18:32:46
Hassim 45 4min 59.316s. 12 août 2019 18:32:46
906. Like2Loop 45 4min 59.333s. 10 août 2019 16:11:16
ХитрыйКраб 45 4min 59.333s. 10 août 2019 16:11:16
Drakhore666 45 4min 59.333s. 10 août 2019 16:11:16
Gissmo84 45 4min 59.333s. 10 août 2019 16:11:16
910. Torm 45 4min 59.466s. 9 août 2019 19:37:42
KromX 45 4min 59.466s. 9 août 2019 19:37:42
VanaJoann 45 4min 59.466s. 9 août 2019 19:37:42
Zhintox 45 4min 59.466s. 9 août 2019 19:37:42
914. Vultapher 45 4min 59.600s. 6 août 2019 17:36:01
zeze 45 4min 59.600s. 6 août 2019 17:36:01
Begaroth 45 4min 59.600s. 6 août 2019 17:36:01
Tjockesven 45 4min 59.600s. 6 août 2019 17:36:01
918. SAULE 45 5min 0.033s. 6 août 2019 07:12:06
Skrypta 45 5min 0.033s. 6 août 2019 07:12:06
hmigaybil 45 5min 0.033s. 6 août 2019 07:12:06
Веном 45 5min 0.033s. 6 août 2019 07:12:06
922. clownfoot 45 5min 0.483s. 8 août 2019 20:28:52
Hollomere 45 5min 0.483s. 8 août 2019 20:28:52
Uriel 45 5min 0.483s. 8 août 2019 20:28:52
Jakey 45 5min 0.483s. 8 août 2019 20:28:52
926. pavel187 45 5min 0.816s. 6 août 2019 18:31:55
KainsTorment 45 5min 0.816s. 6 août 2019 18:31:55
Fryzjer74 45 5min 0.816s. 6 août 2019 18:31:55
Amenadiel 45 5min 0.816s. 6 août 2019 18:31:55
930. Dcirusc29 45 5min 0.850s. 6 août 2019 21:47:59
Putridpile 45 5min 0.850s. 6 août 2019 21:47:59
Lockisan 45 5min 0.850s. 6 août 2019 21:47:59
ARHANGEL 45 5min 0.850s. 6 août 2019 21:47:59
934. HAKEN 45 5min 0.899s. 10 août 2019 07:40:59
SilentStorm 45 5min 0.899s. 10 août 2019 07:40:59
x0xAE 45 5min 0.899s. 10 août 2019 07:40:59
Кирито 45 5min 0.899s. 10 août 2019 07:40:59
938. trdtn 45 5min 1.033s. 11 août 2019 15:48:49
Cianix 45 5min 1.033s. 11 août 2019 15:48:49
DarkMan 45 5min 1.033s. 11 août 2019 15:48:49
941. Takos 45 5min 1.650s. 12 août 2019 01:17:21
Unknown 45 5min 1.650s. 12 août 2019 01:17:21
maus 45 5min 1.650s. 12 août 2019 01:17:21
Denio 45 5min 1.650s. 12 août 2019 01:17:21
945. Prinzess 45 5min 1.666s. 6 août 2019 19:15:09
xZx 45 5min 1.666s. 6 août 2019 19:15:09
DRACSID 45 5min 1.666s. 6 août 2019 19:15:09
KORRADY1971 45 5min 1.666s. 6 août 2019 19:15:09
949. Frost 45 5min 2.783s. 7 août 2019 14:18:21
legion 45 5min 2.783s. 7 août 2019 14:18:21
Juhle 45 5min 2.783s. 7 août 2019 14:18:21
Falcom 45 5min 2.783s. 7 août 2019 14:18:21
953. Фартовый 45 5min 3.116s. 10 août 2019 10:57:22
Владимир 45 5min 3.116s. 10 août 2019 10:57:22
aser 45 5min 3.116s. 10 août 2019 10:57:22
Nurdertommy 45 5min 3.116s. 10 août 2019 10:57:22
957. Dryle 45 5min 3.233s. 9 août 2019 20:13:19
Salander 45 5min 3.233s. 9 août 2019 20:13:19
Marten 45 5min 3.233s. 9 août 2019 20:13:19
YOSSI 45 5min 3.233s. 9 août 2019 20:13:19
961. Безумец 45 5min 3.316s. 6 août 2019 13:20:42
yourassulcer 45 5min 3.316s. 6 août 2019 13:20:42
kamil 45 5min 3.316s. 6 août 2019 13:20:42
Pigmalion 45 5min 3.316s. 6 août 2019 13:20:42
965. Aron 45 5min 3.466s. 7 août 2019 08:40:58
Wolf57 45 5min 3.466s. 7 août 2019 08:40:58
dasdark 45 5min 3.466s. 7 août 2019 08:40:58
968. Haruto 45 5min 3.650s. 6 août 2019 19:53:15
Eckart 45 5min 3.650s. 6 août 2019 19:53:15
Grumpynum 45 5min 3.650s. 6 août 2019 19:53:15
freeman1313 45 5min 3.650s. 6 août 2019 19:53:15
972. Zevl 45 5min 4.050s. 6 août 2019 17:12:05
Steppa 45 5min 4.050s. 6 août 2019 17:12:05
Октавия 45 5min 4.050s. 6 août 2019 17:12:05
975. appocalipse 45 5min 4.433s. 7 août 2019 15:56:00
divad 45 5min 4.433s. 7 août 2019 15:56:00
WatchmeRIP 45 5min 4.433s. 7 août 2019 15:56:00
Sorgine 45 5min 4.433s. 7 août 2019 15:56:00
979. Kazuma 45 5min 5.000s. 10 août 2019 13:43:15
FearBacon 45 5min 5.000s. 10 août 2019 13:43:15
Tregg 45 5min 5.000s. 10 août 2019 13:43:15
Fallensis 45 5min 5.000s. 10 août 2019 13:43:15
983. San4Ees 45 5min 5.066s. 7 août 2019 15:30:03
Diggen 45 5min 5.066s. 7 août 2019 15:30:03
Thora 45 5min 5.066s. 7 août 2019 15:30:03
986. evgentm 45 5min 5.266s. 7 août 2019 18:15:38
djerx89 45 5min 5.266s. 7 août 2019 18:15:38
Irgendwer 45 5min 5.266s. 7 août 2019 18:15:38
Schwonki 45 5min 5.266s. 7 août 2019 18:15:38
990. SerieusLee 45 5min 5.633s. 10 août 2019 23:20:21
RickSanchez 45 5min 5.633s. 10 août 2019 23:20:21
Avatar 45 5min 5.633s. 10 août 2019 23:20:21
guerilla 45 5min 5.633s. 10 août 2019 23:20:21
994. dragodon 45 5min 6.533s. 7 août 2019 18:52:21
Hungen 45 5min 6.533s. 7 août 2019 18:52:21
Port2662 45 5min 6.533s. 7 août 2019 18:52:21
Pazza 45 5min 6.533s. 7 août 2019 18:52:21
998. AVILEON 45 5min 6.566s. 11 août 2019 17:26:58
SgtCampo 45 5min 6.566s. 11 août 2019 17:26:58
TOR 45 5min 6.566s. 11 août 2019 17:26:58
joW 45 5min 6.566s. 11 août 2019 17:26:58
1002. Baritone 45 5min 7.366s. 8 août 2019 13:51:01
Czekolada 45 5min 7.366s. 8 août 2019 13:51:01
demwiedzma 45 5min 7.366s. 8 août 2019 13:51:01
Kaarazuio 45 5min 7.366s. 8 août 2019 13:51:01
1006. demon 45 5min 7.516s. 8 août 2019 19:20:17
sHreak 45 5min 7.516s. 8 août 2019 19:20:17
VIPERSTAR 45 5min 7.516s. 8 août 2019 19:20:17
ImRlyBigNoob 45 5min 7.516s. 8 août 2019 19:20:17
1010. STATUSQVO 45 5min 7.916s. 6 août 2019 19:56:53
Fynn 45 5min 7.916s. 6 août 2019 19:56:53
Hugin 45 5min 7.916s. 6 août 2019 19:56:53
darthlu 45 5min 7.916s. 6 août 2019 19:56:53
1014. Pommes8025 45 5min 8.466s. 8 août 2019 19:31:20
Pego 45 5min 8.466s. 8 août 2019 19:31:20
izval 45 5min 8.466s. 8 août 2019 19:31:20
MorFero 45 5min 8.466s. 8 août 2019 19:31:20
1018. Tubas 45 5min 8.933s. 6 août 2019 17:29:48
vihervassari 45 5min 8.933s. 6 août 2019 17:29:48
Unguis102 45 5min 8.933s. 6 août 2019 17:29:48
1021. Nicox 45 5min 9.133s. 11 août 2019 08:19:14
smallden 45 5min 9.133s. 11 août 2019 08:19:14
Blizzardgz 45 5min 9.133s. 11 août 2019 08:19:14
proxyton3000 45 5min 9.133s. 11 août 2019 08:19:14
1025. Ринат 45 5min 9.916s. 7 août 2019 20:26:30
Random 45 5min 9.916s. 7 août 2019 20:26:30
КрэйзиМаг 45 5min 9.916s. 7 août 2019 20:26:30
1028. Uzgor 45 5min 10.466s. 6 août 2019 10:57:41
AttiLTP 45 5min 10.466s. 6 août 2019 10:57:41
MageGivré 45 5min 10.466s. 6 août 2019 10:57:41
1031. Tibor 45 5min 11.066s. 6 août 2019 17:39:09
YatzEviL 45 5min 11.066s. 6 août 2019 17:39:09
Jouler 45 5min 11.066s. 6 août 2019 17:39:09
PRIMO 45 5min 11.066s. 6 août 2019 17:39:09
1035. Zoorek 45 5min 12.333s. 7 août 2019 16:54:22
KALA 45 5min 12.333s. 7 août 2019 16:54:22
eflieros 45 5min 12.333s. 7 août 2019 16:54:22
Konan 45 5min 12.333s. 7 août 2019 16:54:22
1039. MdmaDealer 45 5min 12.550s. 6 août 2019 11:46:50
Forgefeu 45 5min 12.550s. 6 août 2019 11:46:50
Aen 45 5min 12.550s. 6 août 2019 11:46:50
1042. Zergling 45 5min 12.800s. 6 août 2019 17:31:16
C0XINHA 45 5min 12.800s. 6 août 2019 17:31:16
Theoden 45 5min 12.800s. 6 août 2019 17:31:16
Chryanz 45 5min 12.800s. 6 août 2019 17:31:16
1046. Malm3n 45 5min 13.550s. 7 août 2019 22:24:40
salamelkadri 45 5min 13.550s. 7 août 2019 22:24:40
IblisPL 45 5min 13.550s. 7 août 2019 22:24:40
Käsekuchen 45 5min 13.550s. 7 août 2019 22:24:40
1050. Yennefer 45 5min 14.416s. 6 août 2019 08:23:26
Александр 45 5min 14.416s. 6 août 2019 08:23:26
Gaja 45 5min 14.416s. 6 août 2019 08:23:26
Darber12 45 5min 14.416s. 6 août 2019 08:23:26
1054. tomala 45 5min 14.733s. 11 août 2019 11:32:17
Yriel 45 5min 14.733s. 11 août 2019 11:32:17
Kill 45 5min 14.733s. 11 août 2019 11:32:17
1057. Toshi 45 5min 14.916s. 12 août 2019 20:45:53
Jacoek 45 5min 14.916s. 12 août 2019 20:45:53
Azazel 45 5min 14.916s. 12 août 2019 20:45:53
Uruka 45 5min 14.916s. 12 août 2019 20:45:53
1061. Chefkoch 45 5min 14.949s. 8 août 2019 12:38:06
Xandrya666 45 5min 14.949s. 8 août 2019 12:38:06
Lily 45 5min 14.949s. 8 août 2019 12:38:06
Amy 45 5min 14.949s. 8 août 2019 12:38:06
1065. Qeff 45 5min 15.800s. 9 août 2019 16:33:48
Matvey 45 5min 15.800s. 9 août 2019 16:33:48
papplsz 45 5min 15.800s. 9 août 2019 16:33:48
Army 45 5min 15.800s. 9 août 2019 16:33:48
1069. Prettyboy 45 5min 16.033s. 7 août 2019 17:22:10
MAGYL 45 5min 16.033s. 7 août 2019 17:22:10
GiantDwarf 45 5min 16.033s. 7 août 2019 17:22:10
Majasun 45 5min 16.033s. 7 août 2019 17:22:10
1073. lloya 45 5min 16.033s. 12 août 2019 19:29:31
Tris 45 5min 16.033s. 12 août 2019 19:29:31
g0ntell0 45 5min 16.033s. 12 août 2019 19:29:31
Gadittano 45 5min 16.033s. 12 août 2019 19:29:31
1077. tron424 45 5min 16.716s. 6 août 2019 18:18:54
Baalrok 45 5min 16.716s. 6 août 2019 18:18:54
K0mat0z 45 5min 16.716s. 6 août 2019 18:18:54
Sławek0001 45 5min 16.716s. 6 août 2019 18:18:54
1081. musotrix 45 5min 17.050s. 10 août 2019 18:01:07
Ptero64 45 5min 17.050s. 10 août 2019 18:01:07
Ar7em1us 45 5min 17.050s. 10 août 2019 18:01:07
1084. Goupil 45 5min 17.116s. 6 août 2019 19:36:26
Goax 45 5min 17.116s. 6 août 2019 19:36:26
Энтони 45 5min 17.116s. 6 août 2019 19:36:26
1087. Kratos 45 5min 17.166s. 10 août 2019 06:51:55
Zuntyrrin 45 5min 17.166s. 10 août 2019 06:51:55
Spearhawk 45 5min 17.166s. 10 août 2019 06:51:55
1090. Deren 45 5min 17.666s. 6 août 2019 20:42:50
Horus 45 5min 17.666s. 6 août 2019 20:42:50
Apollo 45 5min 17.666s. 6 août 2019 20:42:50
1093. Cerbero 45 5min 18.133s. 7 août 2019 18:22:26
talhasaksak 45 5min 18.133s. 7 août 2019 18:22:26
Premlord 45 5min 18.133s. 7 août 2019 18:22:26
Brain 45 5min 18.133s. 7 août 2019 18:22:26
1097. Pupis 45 5min 18.283s. 6 août 2019 20:47:10
legenda 45 5min 18.283s. 6 août 2019 20:47:10
Lestor 45 5min 18.283s. 6 août 2019 20:47:10
SammaeL 45 5min 18.283s. 6 août 2019 20:47:10
1101. BenJG420 45 5min 19.016s. 7 août 2019 17:42:58
Garnage 45 5min 19.016s. 7 août 2019 17:42:58
WithoutName 45 5min 19.016s. 7 août 2019 17:42:58
1104. SrDr 45 5min 19.650s. 11 août 2019 14:08:20
Zook 45 5min 19.650s. 11 août 2019 14:08:20
KristelMeff 45 5min 19.650s. 11 août 2019 14:08:20
Colexus 45 5min 19.650s. 11 août 2019 14:08:20
1108. Zinah 45 5min 20.116s. 8 août 2019 18:12:41
PartyPaPa 45 5min 20.116s. 8 août 2019 18:12:41
MrNo 45 5min 20.116s. 8 août 2019 18:12:41
RaveN 45 5min 20.116s. 8 août 2019 18:12:41
1112. Arioch 45 5min 20.433s. 11 août 2019 16:15:44
Selecao 45 5min 20.433s. 11 août 2019 16:15:44
Pervyylvl 45 5min 20.433s. 11 août 2019 16:15:44
LuckyDragon 45 5min 20.433s. 11 août 2019 16:15:44
1116. OO7M47rix 45 5min 21.250s. 6 août 2019 17:12:58
CyberMieze 45 5min 21.250s. 6 août 2019 17:12:58
Naam 45 5min 21.250s. 6 août 2019 17:12:58
Bernd 45 5min 21.250s. 6 août 2019 17:12:58
1120. CooleSau93 45 5min 22.300s. 7 août 2019 18:34:08
player51 45 5min 22.300s. 7 août 2019 18:34:08
Olli 45 5min 22.300s. 7 août 2019 18:34:08
Braindead 45 5min 22.300s. 7 août 2019 18:34:08
1124. Xedorux72 45 5min 22.783s. 6 août 2019 06:46:05
Arturro 45 5min 22.783s. 6 août 2019 06:46:05
Crono 45 5min 22.783s. 6 août 2019 06:46:05
kymap 45 5min 22.783s. 6 août 2019 06:46:05
1128. philip999 45 5min 22.783s. 11 août 2019 14:25:44
Ralf 45 5min 22.783s. 11 août 2019 14:25:44
Kuroro 45 5min 22.783s. 11 août 2019 14:25:44
1131. Thrisar 45 5min 23.083s. 6 août 2019 20:27:54
xcaosx 45 5min 23.083s. 6 août 2019 20:27:54
Faylobedo 45 5min 23.083s. 6 août 2019 20:27:54
1134. RNA 45 5min 23.283s. 6 août 2019 09:30:46
Srećko 45 5min 23.283s. 6 août 2019 09:30:46
kirigai26 45 5min 23.283s. 6 août 2019 09:30:46
TailonTerran 45 5min 23.283s. 6 août 2019 09:30:46
1138. Lechit 45 5min 23.349s. 11 août 2019 08:54:27
MasterViking 45 5min 23.349s. 11 août 2019 08:54:27
straCHu 45 5min 23.349s. 11 août 2019 08:54:27
1141. christopher 45 5min 25.000s. 6 août 2019 08:01:04
sellig300 45 5min 25.000s. 6 août 2019 08:01:04
Setmenteros 45 5min 25.000s. 6 août 2019 08:01:04
Isteri4go 45 5min 25.000s. 6 août 2019 08:01:04
1145. Murkxi 45 5min 25.050s. 6 août 2019 15:38:38
martin 45 5min 25.050s. 6 août 2019 15:38:38
GoGotun 45 5min 25.050s. 6 août 2019 15:38:38
1148. Alyssa 45 5min 25.316s. 7 août 2019 11:44:36
mckoy33 45 5min 25.316s. 7 août 2019 11:44:36
Daspin 45 5min 25.316s. 7 août 2019 11:44:36
1151. papikyan 45 5min 25.866s. 6 août 2019 18:01:23
KAZUS 45 5min 25.866s. 6 août 2019 18:01:23
hellisa 45 5min 25.866s. 6 août 2019 18:01:23
ДиКузя 45 5min 25.866s. 6 août 2019 18:01:23
1155. SirNicks 45 5min 25.866s. 9 août 2019 15:39:06
Sasoki 45 5min 25.866s. 9 août 2019 15:39:06
falke 45 5min 25.866s. 9 août 2019 15:39:06
Hei 45 5min 25.866s. 9 août 2019 15:39:06
1159. Jöllenbecker 45 5min 26.016s. 7 août 2019 18:57:20
Lobo 45 5min 26.016s. 7 août 2019 18:57:20
Pepson21 45 5min 26.016s. 7 août 2019 18:57:20
1162. Abdulla 45 5min 26.183s. 11 août 2019 21:13:29
Zäta 45 5min 26.183s. 11 août 2019 21:13:29
Reveng 45 5min 26.183s. 11 août 2019 21:13:29
Harm 45 5min 26.183s. 11 août 2019 21:13:29
1166. Mukk 45 5min 27.066s. 6 août 2019 16:44:56
LethalHealer 45 5min 27.066s. 6 août 2019 16:44:56
AmonChakay 45 5min 27.066s. 6 août 2019 16:44:56
rosiu 45 5min 27.066s. 6 août 2019 16:44:56
1170. Voyager 45 5min 27.700s. 6 août 2019 18:42:09
1171. SchnitzelBro 45 5min 27.816s. 7 août 2019 01:35:19
Odelias 45 5min 27.816s. 7 août 2019 01:35:19
Edelhose 45 5min 27.816s. 7 août 2019 01:35:19
SilverHawk 45 5min 27.816s. 7 août 2019 01:35:19
1175. fr0st 45 5min 27.866s. 10 août 2019 09:28:23
Damnation 45 5min 27.866s. 10 août 2019 09:28:23
deli 45 5min 27.866s. 10 août 2019 09:28:23
Arêss 45 5min 27.866s. 10 août 2019 09:28:23
1179. ТемныйРыцарь 45 5min 27.966s. 7 août 2019 06:54:00
Gaden 45 5min 27.966s. 7 août 2019 06:54:00
MjrPayne 45 5min 27.966s. 7 août 2019 06:54:00
1182. Theuns 45 5min 28.166s. 12 août 2019 15:29:37
bereza 45 5min 28.166s. 12 août 2019 15:29:37
JoMi 45 5min 28.166s. 12 août 2019 15:29:37
Anubis 45 5min 28.166s. 12 août 2019 15:29:37
1186. Doomhammer 45 5min 28.416s. 6 août 2019 14:03:11
什麼鬼 45 5min 28.416s. 6 août 2019 14:03:11
Ому 45 5min 28.416s. 6 août 2019 14:03:11
1189. Kapelan 45 5min 28.433s. 6 août 2019 16:42:03
NickFox 45 5min 28.433s. 6 août 2019 16:42:03
asier69 45 5min 28.433s. 6 août 2019 16:42:03
1192. Panerai 45 5min 29.416s. 10 août 2019 23:49:14
Farseer 45 5min 29.416s. 10 août 2019 23:49:14
Drakt 45 5min 29.416s. 10 août 2019 23:49:14
1195. Alexmofu 45 5min 30.383s. 9 août 2019 00:44:16
JOINX 45 5min 30.383s. 9 août 2019 00:44:16
Panzerfaust 45 5min 30.383s. 9 août 2019 00:44:16
GyGaByTe 45 5min 30.383s. 9 août 2019 00:44:16
1199. Lonewoolf 45 5min 30.699s. 11 août 2019 17:02:21
Vywién 45 5min 30.699s. 11 août 2019 17:02:21
czarroslaw 45 5min 30.699s. 11 août 2019 17:02:21
Hackfleisch 45 5min 30.699s. 11 août 2019 17:02:21
1203. xPredator 45 5min 30.799s. 6 août 2019 10:39:51
gamessteam23 45 5min 30.799s. 6 août 2019 10:39:51
Petulliinka 45 5min 30.799s. 6 août 2019 10:39:51
1206. Thunderlight 45 5min 30.900s. 11 août 2019 19:05:39
NightRaven 45 5min 30.900s. 11 août 2019 19:05:39
WOLFFF 45 5min 30.900s. 11 août 2019 19:05:39
DerBrocken 45 5min 30.900s. 11 août 2019 19:05:39
1210. Kataclan 45 5min 31.400s. 6 août 2019 14:24:43
Elemiah 45 5min 31.400s. 6 août 2019 14:24:43
Rh1no 45 5min 31.400s. 6 août 2019 14:24:43
LaertesFelix 45 5min 31.400s. 6 août 2019 14:24:43
1214. IchAG 45 5min 31.900s. 6 août 2019 06:23:04
Th0r 45 5min 31.900s. 6 août 2019 06:23:04
lenain95470 45 5min 31.900s. 6 août 2019 06:23:04
Gaviel 45 5min 31.900s. 6 août 2019 06:23:04
1218. EdHunter 45 5min 32.900s. 6 août 2019 04:51:50
BOGDAN 45 5min 32.900s. 6 août 2019 04:51:50
Ultrasonic 45 5min 32.900s. 6 août 2019 04:51:50
1221. Joker 45 5min 32.933s. 10 août 2019 12:36:13
TheWarHammer 45 5min 32.933s. 10 août 2019 12:36:13
KrasiaGaming 45 5min 32.933s. 10 août 2019 12:36:13
1224. cnkconan 45 5min 33.633s. 7 août 2019 16:05:12
virusnexsus 45 5min 33.633s. 7 août 2019 16:05:12
DragonBorn 45 5min 33.633s. 7 août 2019 16:05:12
1227. AshLambert86 45 5min 33.966s. 11 août 2019 16:39:27
Cimpam87 45 5min 33.966s. 11 août 2019 16:39:27
Barbarosus 45 5min 33.966s. 11 août 2019 16:39:27
1230. Mickey 45 5min 34.099s. 6 août 2019 08:52:20
Jiriki 45 5min 34.099s. 6 août 2019 08:52:20
ridant 45 5min 34.099s. 6 août 2019 08:52:20
Jaslifer 45 5min 34.099s. 6 août 2019 08:52:20
1234. Günter 45 5min 35.466s. 10 août 2019 23:03:28
winnetou 45 5min 35.466s. 10 août 2019 23:03:28
Mondschein 45 5min 35.466s. 10 août 2019 23:03:28
Gimli 45 5min 35.466s. 10 août 2019 23:03:28
1238. dolar 45 5min 36.033s. 8 août 2019 17:30:27
Crowley 45 5min 36.033s. 8 août 2019 17:30:27
killerking54 45 5min 36.033s. 8 août 2019 17:30:27
Gnoub 45 5min 36.033s. 8 août 2019 17:30:27
1242. Micha 45 5min 36.733s. 6 août 2019 15:00:17
filus 45 5min 36.733s. 6 août 2019 15:00:17
RON50HB 45 5min 36.733s. 6 août 2019 15:00:17
ConfusedDuck 45 5min 36.733s. 6 août 2019 15:00:17
1246. DarkMessiah 45 5min 36.866s. 10 août 2019 16:40:58
lexuskray35 45 5min 36.866s. 10 août 2019 16:40:58
Seb7524 45 5min 36.866s. 10 août 2019 16:40:58
Chástity 45 5min 36.866s. 10 août 2019 16:40:58
1250. Гор 45 5min 38.866s. 6 août 2019 04:04:32
Drakyrael 45 5min 38.866s. 6 août 2019 04:04:32
apollon86 45 5min 38.866s. 6 août 2019 04:04:32
ChateauHell 45 5min 38.866s. 6 août 2019 04:04:32
1254. Erron 45 5min 39.666s. 6 août 2019 11:14:50
Jörn 45 5min 39.666s. 6 août 2019 11:14:50
Викуся 45 5min 39.666s. 6 août 2019 11:14:50
1257. Zweinhander 45 5min 39.750s. 10 août 2019 22:15:10
Aragato 45 5min 39.750s. 10 août 2019 22:15:10
1259. Kahzia 45 5min 39.883s. 10 août 2019 15:43:37
Szczypcik 45 5min 39.883s. 10 août 2019 15:43:37
dean2014 45 5min 39.883s. 10 août 2019 15:43:37
jarlvoss 45 5min 39.883s. 10 août 2019 15:43:37
1263. Xada 45 5min 40.016s. 6 août 2019 21:34:09
DaEnemy 45 5min 40.016s. 6 août 2019 21:34:09
DarkSoul 45 5min 40.016s. 6 août 2019 21:34:09
1266. Deadnaut 45 5min 40.250s. 6 août 2019 22:19:47
Leon 45 5min 40.250s. 6 août 2019 22:19:47
FarmandKongo 45 5min 40.250s. 6 août 2019 22:19:47
BrainSaw 45 5min 40.250s. 6 août 2019 22:19:47
1270. shaierel 45 5min 40.516s. 7 août 2019 18:46:09
sp3itt1 45 5min 40.516s. 7 août 2019 18:46:09
Liliana 45 5min 40.516s. 7 août 2019 18:46:09
1273. Boodo 45 5min 42.483s. 6 août 2019 06:57:32
poposs 45 5min 42.483s. 6 août 2019 06:57:32
ette 45 5min 42.483s. 6 août 2019 06:57:32
Tylarion 45 5min 42.483s. 6 août 2019 06:57:32
1277. Progalix 45 5min 42.483s. 11 août 2019 18:08:07
Retroama 45 5min 42.483s. 11 août 2019 18:08:07
1279. Staff 45 5min 42.716s. 6 août 2019 16:43:00
HptmGrapi 45 5min 42.716s. 6 août 2019 16:43:00
Veskator 45 5min 42.716s. 6 août 2019 16:43:00
Düsman 45 5min 42.716s. 6 août 2019 16:43:00
1283. ih8myself 45 5min 43.049s. 11 août 2019 18:34:37
nikandjust 45 5min 43.049s. 11 août 2019 18:34:37
LoRdSniiPezZ 45 5min 43.049s. 11 août 2019 18:34:37
burger98 45 5min 43.049s. 11 août 2019 18:34:37
1287. adriax 45 5min 43.633s. 9 août 2019 20:21:40
Vivinho 45 5min 43.633s. 9 août 2019 20:21:40
miem 45 5min 43.633s. 9 août 2019 20:21:40
firmin 45 5min 43.633s. 9 août 2019 20:21:40
1291. MrSmartSnipe 45 5min 45.483s. 7 août 2019 19:40:59
Ermac 45 5min 45.483s. 7 août 2019 19:40:59
SSP 45 5min 45.483s. 7 août 2019 19:40:59
DonJon 45 5min 45.483s. 7 août 2019 19:40:59
1295. AnubiS 45 5min 46.450s. 10 août 2019 17:12:23
tenebre 45 5min 46.450s. 10 août 2019 17:12:23
TheHayemaker 45 5min 46.450s. 10 août 2019 17:12:23
1298. turboelle 45 5min 46.900s. 6 août 2019 06:34:04
Flamegor 45 5min 46.900s. 6 août 2019 06:34:04
Diablo 45 5min 46.900s. 6 août 2019 06:34:04
1301. LoptiXS 45 5min 47.183s. 6 août 2019 10:15:55
самоубийство 45 5min 47.183s. 6 août 2019 10:15:55
1303. Elmwell 45 5min 48.016s. 6 août 2019 15:33:47
Ikati 45 5min 48.016s. 6 août 2019 15:33:47
MaNgU 45 5min 48.016s. 6 août 2019 15:33:47
1306. Spike 45 5min 48.033s. 6 août 2019 20:20:41
ghostrider 45 5min 48.033s. 6 août 2019 20:20:41
Bukephalos 45 5min 48.033s. 6 août 2019 20:20:41
1309. Melkhor 45 5min 48.633s. 6 août 2019 19:49:45
PítrS 45 5min 48.633s. 6 août 2019 19:49:45
1311. Stroboskopi 45 5min 50.966s. 6 août 2019 14:25:06
Eberhard 45 5min 50.966s. 6 août 2019 14:25:06
1313. frenzl 45 5min 51.550s. 6 août 2019 03:40:19
Timur678 45 5min 51.550s. 6 août 2019 03:40:19
Снайпер 45 5min 51.550s. 6 août 2019 03:40:19
KidDevil 45 5min 51.550s. 6 août 2019 03:40:19
1317. GrafAndy 45 5min 52.066s. 7 août 2019 21:13:01
Angel 45 5min 52.066s. 7 août 2019 21:13:01
baal 45 5min 52.066s. 7 août 2019 21:13:01
Outlaw 45 5min 52.066s. 7 août 2019 21:13:01
1321. m3phisto 45 5min 53.416s. 6 août 2019 18:25:19
IBOOBI 45 5min 53.416s. 6 août 2019 18:25:19
Amadame 45 5min 53.416s. 6 août 2019 18:25:19
1324. eleeo 45 5min 53.433s. 7 août 2019 08:43:55
иоан 45 5min 53.433s. 7 août 2019 08:43:55
Ptirfca 45 5min 53.433s. 7 août 2019 08:43:55
1327. LordPowaga 45 5min 53.616s. 6 août 2019 15:40:26
1328. Diamiel 45 5min 54.600s. 7 août 2019 09:27:02
Ашура 45 5min 54.600s. 7 août 2019 09:27:02
ВестникТьмы 45 5min 54.600s. 7 août 2019 09:27:02
Peter 45 5min 54.600s. 7 août 2019 09:27:02
1332. twixzor 45 5min 54.666s. 10 août 2019 18:29:38
Solamira 45 5min 54.666s. 10 août 2019 18:29:38
locke 45 5min 54.666s. 10 août 2019 18:29:38
Nacholibre69 45 5min 54.666s. 10 août 2019 18:29:38
1336. sLaugher 45 6min 0.733s. 10 août 2019 16:36:54
Krustenkäse 45 6min 0.733s. 10 août 2019 16:36:54
GerdGerdsen 45 6min 0.733s. 10 août 2019 16:36:54
AmazingHorst 45 6min 0.733s. 10 août 2019 16:36:54
1340. Eiiki 45 6min 1.283s. 11 août 2019 12:01:36
Nonspeed 45 6min 1.283s. 11 août 2019 12:01:36
Saragossa 45 6min 1.283s. 11 août 2019 12:01:36
SuperNinja 45 6min 1.283s. 11 août 2019 12:01:36
1344. Percevent 45 6min 1.400s. 8 août 2019 11:02:57
Bartek84 45 6min 1.400s. 8 août 2019 11:02:57
Tipus 45 6min 1.400s. 8 août 2019 11:02:57
panpalini 45 6min 1.400s. 8 août 2019 11:02:57
1348. Unicron 45 6min 4.033s. 6 août 2019 16:56:35
1349. Towelie 45 6min 4.350s. 9 août 2019 17:54:19
fili 45 6min 4.350s. 9 août 2019 17:54:19
DerForce 45 6min 4.350s. 9 août 2019 17:54:19
1352. Mashirino 45 6min 5.416s. 7 août 2019 09:33:35
Teffal 45 6min 5.416s. 7 août 2019 09:33:35
1354. Celtix 45 6min 6.666s. 8 août 2019 17:22:54
rainnikos 45 6min 6.666s. 8 août 2019 17:22:54
1356. hodya91rus 45 6min 10.366s. 6 août 2019 11:23:13
Whoopzie 45 6min 10.366s. 6 août 2019 11:23:13
심슨 45 6min 10.366s. 6 août 2019 11:23:13
bonecruer 45 6min 10.366s. 6 août 2019 11:23:13
1360. Celes 45 6min 11.066s. 8 août 2019 13:01:20
Superval 45 6min 11.066s. 8 août 2019 13:01:20
ang666 45 6min 11.066s. 8 août 2019 13:01:20
1363. lenoiche 45 6min 17.733s. 7 août 2019 22:06:44
Schippy 45 6min 17.733s. 7 août 2019 22:06:44
Hoej3n 45 6min 17.733s. 7 août 2019 22:06:44
1366. Sabin 45 6min 18.283s. 6 août 2019 17:04:12
Medvedator 45 6min 18.283s. 6 août 2019 17:04:12
DASiNKiNG 45 6min 18.283s. 6 août 2019 17:04:12
Obito 45 6min 18.283s. 6 août 2019 17:04:12
1370. DarkYunki 45 6min 19.316s. 12 août 2019 11:02:16
donomar200 45 6min 19.316s. 12 août 2019 11:02:16
1372. Riza 45 6min 20.083s. 6 août 2019 17:00:46
SEGAFU 45 6min 20.083s. 6 août 2019 17:00:46
Alex 45 6min 20.083s. 6 août 2019 17:00:46
1375. RampagE 45 6min 27.799s. 8 août 2019 04:07:46
KarTeR 45 6min 27.799s. 8 août 2019 04:07:46
Godless 45 6min 27.799s. 8 août 2019 04:07:46
Dukalis 45 6min 27.799s. 8 août 2019 04:07:46
1379. ByBeLa 45 6min 29.533s. 9 août 2019 13:35:54
Silenzio80 45 6min 29.533s. 9 août 2019 13:35:54
艾美神 45 6min 29.533s. 9 août 2019 13:35:54
1382. VALKYRA 45 6min 35.716s. 8 août 2019 18:42:11
1383. Harmel 45 6min 41.950s. 11 août 2019 15:10:40
Afonechka 45 6min 41.950s. 11 août 2019 15:10:40
SzuperOcsi 45 6min 41.950s. 11 août 2019 15:10:40
Hames 45 6min 41.950s. 11 août 2019 15:10:40
1387. happyDark 45 6min 43.200s. 11 août 2019 21:06:59
SkanDaL 45 6min 43.200s. 11 août 2019 21:06:59
1389. RagnarokCzD 45 6min 52.766s. 6 août 2019 08:38:42
polo2112 45 6min 52.766s. 6 août 2019 08:38:42
Abiaka 45 6min 52.766s. 6 août 2019 08:38:42
1392. CONANDO 45 7min 8.683s. 6 août 2019 21:08:37
Zeratul 45 7min 8.683s. 6 août 2019 21:08:37
1394. Rabeitor 45 7min 41.066s. 11 août 2019 10:19:55
Howl 45 7min 41.066s. 11 août 2019 10:19:55
1396. ghostkıngtr 45 8min 2.983s. 12 août 2019 21:13:38
PMZ 45 8min 2.983s. 12 août 2019 21:13:38
Affichage de 1150 sur 1 397 résultats